Baseball 板


LINE

客队: 洛 杉 矶 道 奇 2026 季赛—本季打击成绩—AVG/OBP/OPS --- ↗HR↖ 1. 大 谷 翔 平 (L) DH .240 / .370 / .799 7HR 2. Mookie Betts (R) SS .152 / .220 / .590 3HR 3. Freddie Freeman (L) 1B .270 / .343 / .766 4HR 4. Will Smith (R) C .258 / .326 / .701 4HR 5. Andy Pages (R) CF .305 / .356 / .892 10HR 6. Max Muncy (L) 3B .275 / .372 / .935 12HR 7. Teoscar Hernandez (R) LF .269 / .340 / .760 5HR 8. Alex Call (R) RF .310 / .434 / .839 9. 金 慧 成 (L) 2B .273 / .330 / .694 1HR      先发投手 : (L) Justin Wrobleski 5W-1L ERA 2.42 WHIP 0.99 主队: 洛 杉 矶 天 使 2026 季赛打击成绩 AVG / OBP / OPS --- ↗HR↖ 1. Vaughn Grissom (R) 3B .250 / .337 / .745 2HR 2. Mike Trout (R) CF .244 / .407 / .901  11HR 3. Zach Neto (R) SS .229 / .343 / .754 7HR 4. Jorge Soler (R) DH .215 / .310 / .733  8HR 5. Jo Adell (R) RF .263 / .303 / .697    6HR 6. Oswald Peraza (R) 2B .272 / .336 / .801 5HR 7. Nolan Schanuel (L) 1B .256 / .309 / .684 3HR 8. Logan O'Hoppe (R) C .200 / .316 / .566 1HR 9. Jose Siri (R) LF 本季初登场 先发投手 : (R) Jose Soriano 6W-2L ERA 1.66 WHIP 1.05 道奇先发打线图片版: https://pbs.twimg.com/media/HIeK8xza4AA7UpU.jpg
天使先发打线图片版: https://pbs.twimg.com/media/HIeX0v4akAEotjw.jpg
即时气温预报 : 华氏 69 F 晴时多云   风速 9 mph 打者顺风 ╭─────────────── 转播平台 ──────────────╮ │纬来育乐台 │ │爱尔达ELTA体育 1台 (MOD CH200) │ │MLB.TV ( 免 付 费 ) Free Game of the Day │ │Hami Video  https://hamivideo.hinet.net (请点选电视运动馆) │ │ │ │台湾时间早上09:38开打 │ ╰────────────────────────────────────╯ 观 战 花 絮 : 1. 落翅仔持续探底 https://pbs.twimg.com/media/HIKVHgEWoAAWC1K.jpg
天使近期四连败 MLB炉主位持续稳固 今天再输将成为本季MLB第一队卅败 2. 哈罗Siri 天使球员名单异动> 签下外野 Jose Siri 把外野 Bryce Teodosio 下放AAA 为空出名单把受伤的火球男 Ben Joyce 移至60天IL 3. 只怕白袜的赛扬热门 天使先发> Soriano https://pbs.twimg.com/media/HGn-bMwWwAALL12.jpg
当选三/四月美联最佳投手 开季表现神勇 连六场出赛共37.2局仅失1分(阳春炮) 个人开季五连胜 直到遇上村神领衔的白袜 主客场各对白袜两场下来 合计9局失8分遭4轰连吞两败 好消息是本季对白袜的赛事已结束 前一场对蓝鸟 7.2局仅失1分 被敲5安 送出7K+1BB获胜 生涯对道奇2场 1胜0败 ERA 1.35 生涯与道奇打线对战 vs 翔 平 2-0 1K 1BB vs Betts 3-1 0K vs Freeman 3-0 1K vs Smith 2-1 0K 1BB vs Pages 2-0 2K vs Muncy 3-1 1RBI 0K vs T.Hernandez 4-1 2K vs Call 5-1 1K 4. 连胜止步重新出发 道奇先发> Wrobleski 开季先发五连胜被勇士打断 前一场对勇士投8.2局挨2轰失7分 差一人次完投送出7K+1BB吞本季首败 生涯首度对天使先发 先前後援一场2局失2分吞败 ERA 9.00 生涯与天使打线对战 vs Trout 0-0 0K 1BB vs Neto 1-0 0K vs Adell 1-0 0K vs Schanuel 1-0 0K vs O'Hoppe 1-0 0K 5. 今日主题活动 https://img.mlbstatic.com/mlb-images/image/upload/mlb/ftw9npmtylfsmuu9liqu.png
天使主场赛後结束将有周六晚烟火秀 ----由现代汽车加州经销商赞助 -- MLB2026 马急来挑战! 你怎能不热爱棒球? It's SHO time !!! https://youtu.be/6Nbq65klFmM
-- ※ 文章网址: https://webptt.com/cn.aspx?n=bbs/Baseball/M.1778981839.A.3FA.html
1F:推 hi750403: 来了司机加油阿! 05/17 09:37
2F:→ hi750403: 今天投手不好惹 05/17 09:38
3F:推 TonyGonsolin: 师基加油 05/17 09:38
4F:推 Romulus: 打爆Soriano拿Cy 啊是美联的那没事了 05/17 09:39
5F:推 daydreamer13: 对上Soriano 今天刺激喔 05/17 09:39
6F:推 jiaxie: 塔克休息 05/17 09:39
7F:→ hi750403: 大谷加油阿 05/17 09:40
8F:推 nightcrow: 自己的赛扬对手自己打爆 啊,是美联的? 05/17 09:40
9F:→ jiaxie: 主审还会解带脱裤吗 05/17 09:40
10F:→ achibluu: 早安 05/17 09:40
11F:推 hipnos: 痛 05/17 09:41
12F:→ achibluu: 塔克休息 05/17 09:41
13F:→ CaminoI: 隔壁鼓人结束无缝过来看 XD 05/17 09:41
14F:→ hi750403: 疑 05/17 09:41
15F:推 heaven12: 大谷首打席BB 05/17 09:41
16F:→ jiaxie: 笑死 选得不错,BB 05/17 09:41
17F:→ hi750403: 疑难道 05/17 09:41
18F:推 zergtide: BB 05/17 09:41
19F:→ TonyGonsolin: BB 05/17 09:41
20F:→ Yjizz: 翔平THE 选 05/17 09:41
21F:推 SHOTN17: BB 05/17 09:41
22F:推 daydreamer13: 大谷没瞎挥了 05/17 09:42
23F:推 crayon1988: 选球不错 05/17 09:42
24F:推 luca714: 控球不太对 有几颗超偏的 05/17 09:42
25F:推 roylee1214: BB 05/17 09:42
26F:→ CaminoI: 至少有选 05/17 09:42
27F:→ hi750403: 别断层阿 05/17 09:42
28F:推 Romulus: 好选 05/17 09:42
29F:推 zxcghjko: 选球回来了吗 05/17 09:42
30F:→ heaven12: H 05/17 09:42
31F:→ hi750403: 大哥 05/17 09:42
32F:→ daydreamer13: 木屐! 05/17 09:42
33F:→ heaven12: 安全上三 05/17 09:42
34F:推 metro721: 保送今日交差 05/17 09:42
35F:→ jiaxie: 木屐 左外落地安打!笑死到3B 05/17 09:42
36F:推 zego41: 大哥来了 05/17 09:42
37F:推 samedi: 水 05/17 09:42
38F:→ daydreamer13: 打很紮实喔 05/17 09:42
39F:→ crayon1988: 水啦 05/17 09:42
40F:推 ScotchWhisky: 水喔 05/17 09:42
41F:推 hipnos: 连线! 05/17 09:42
42F:→ CaminoI: 木屐安 大谷上三垒 05/17 09:42
43F:→ zxcghjko: 跑好快 05/17 09:42
44F:推 JWalk77: 来罗 05/17 09:42
45F:→ SHOTN17: 大哥! 05/17 09:43
46F:推 Willdododo: 大哥醒 05/17 09:43
47F:推 s15522760406: 躺平:嘻嘻今日任务完成 05/17 09:43
48F:→ roylee1214: 不愧是大哥 05/17 09:43
49F:→ hi750403: 再来阿 05/17 09:43
50F:推 huangjyuan: Soriano开始修正了 05/17 09:43
51F:推 dasbado: 灌分的时候到了 05/17 09:43
52F:推 woddy: 凹凹 05/17 09:43
53F:→ SHOTN17: 多久没看到凸凸凸了 二哥加油! 05/17 09:43
54F:→ hi750403: 继续连线阿 05/17 09:43
55F:→ daydreamer13: 哇 这也太衰 05/17 09:43
56F:→ samedi: 衰 05/17 09:43
57F:→ ScotchWhisky: 衰 05/17 09:43
58F:→ crayon1988: 又又又找人 05/17 09:43
59F:→ freetomove: 今天是什麽神开局 05/17 09:43
60F:→ woddy: 哭啊 05/17 09:43
61F:→ zxcghjko: 找手套 05/17 09:43
62F:→ hi750403: 二哥阿阿阿阿喔不 05/17 09:43
63F:→ jiaxie: Freeman 平飞进二垒手套OUT... 05/17 09:44
64F:推 angel1314: ….. 05/17 09:44
65F:→ SMG2016: 场内怎麽好像道奇球迷比较多 05/17 09:44
66F:→ Tr3vyy: 差点被二个害死XD 05/17 09:44
67F:→ jiaxie: 先猜DP... 05/17 09:44
68F:→ galleon2000: 凸凸凹 05/17 09:44
69F:→ woddy: 都是 LA 的,不要计较那麽多 05/17 09:44
70F:推 NowQmmmmmmmm: 不会接DP吧 05/17 09:44
71F:推 fmtpeter: 都在LA不要分这麽清楚(? 05/17 09:44
72F:→ daydreamer13: 有啦! 05/17 09:44
73F:→ SHOTN17: 可以!! 05/17 09:44
74F:推 CaminoI: 基本功 05/17 09:44
75F:推 zego41: 差一点出去 05/17 09:44
76F:→ crayon1988: SF 05/17 09:44
77F:→ woddy: 基本功 05/17 09:44
78F:→ ScotchWhisky: 基本功 05/17 09:44
79F:→ jiaxie: Smith 右外墙前高飞OUT,笑死刷到R 05/17 09:44
80F:推 JWalk77: 差点 05/17 09:44
81F:→ daydreamer13: 这高飞还差点出墙 05/17 09:44
82F:→ zxcghjko: 基本功 05/17 09:44
83F:推 hipnos: 基本 05/17 09:44
84F:→ NowQmmmmmmmm: 基本功 05/17 09:44
85F:推 ils0104: 影帝差一点 05/17 09:44
86F:推 nigatsuki: 高牺 05/17 09:44
87F:→ hi750403: 爽啦 05/17 09:45
88F:→ Tr3vyy: 基本功 05/17 09:45
89F:→ angel1314: 还好有基本功 05/17 09:45
90F:→ freetomove: 基本功 05/17 09:45
91F:→ crayon1988: EV103.5 05/17 09:45
92F:推 yangtsur: 赞 今天开局不错 05/17 09:45
93F:→ hi750403: 再来连线阿 05/17 09:45
94F:→ ScotchWhisky: 大狗上啊 05/17 09:45
95F:推 disasterD: 道奇主场对吧 05/17 09:45
96F:→ hi750403: 哇塞 05/17 09:45
97F:推 CaminoI: 全美主场 XD 05/17 09:45
98F:→ woddy: 微妙 05/17 09:46
99F:→ hi750403: 帕黑都傻眼 05/17 09:46
100F:→ crayon1988: K 05/17 09:46
101F:推 daydreamer13: 钓到 05/17 09:46
102F:→ jiaxie: Pages 吊中挥空K 05/17 09:46
103F:推 zego41: 气气气 05/17 09:46
104F:→ hi750403: 乾一分 05/17 09:46
105F:推 hipnos: 很生气!! 05/17 09:46
106F:→ ScotchWhisky: 司机加油 05/17 09:46
107F:推 Tr3vyy: 气气气 05/17 09:46
108F:推 Homedoni: 还凶一垒审 好好笑 05/17 09:46
109F:→ woddy: 爱司机打线 05/17 09:46
110F:推 SHOTN17: 大狗用西语问候一垒审吗 www 05/17 09:46
111F:→ hi750403: 司机加油阿靠你了 05/17 09:47
112F:推 metro721: 帕黑不开心 05/17 09:47
113F:→ hi750403: 帕黑真的恰恰的 05/17 09:47
114F:→ hi750403: 司机今天一样吃多点阿 05/17 09:48
115F:→ hi750403: 夭寿 05/17 09:49
116F:推 jiaxie: 木屐漏球了 05/17 09:49
117F:推 yangtsur: ??? 05/17 09:49
118F:→ CaminoI: 木屐你…… 05/17 09:49
119F:→ crayon1988: E 05/17 09:49
120F:推 zxcghjko: 粥 05/17 09:49
121F:→ hi750403: 乾 05/17 09:49
122F:推 JWalk77: 大哥… 05/17 09:49
123F:→ metro721: 啊... 05/17 09:49
124F:推 zego41: 大哥粥了 05/17 09:49
125F:推 SHOTN17: 大哥… 05/17 09:50
126F:推 roylee1214: 又弯不下去了 05/17 09:50
127F:推 Yjizz: 木屐接了空 05/17 09:50
128F:→ chienen: 木屐煮粥 05/17 09:50
129F:推 windphilip: 前大哥来了 05/17 09:50
130F:→ yangtsur: 看错时机抓球 05/17 09:50
131F:推 woddy: 小金你... 喔是大哥,那没事了 05/17 09:50
132F:推 aszxcvn: 抓了个空气 05/17 09:50
133F:推 benboy: 大哥休太久了吗 05/17 09:50
134F:→ CaminoI: 老了腰弯不下去 05/17 09:50
135F:→ hi750403: 别搞阿 05/17 09:50
136F:推 TonyGonsolin: 不计E吗 05/17 09:50
137F:→ crayon1988: K 05/17 09:51
138F:→ hi750403: 司机怕 05/17 09:51
139F:→ hi750403: 水喔 05/17 09:51
140F:推 CavendishJr: 本後广告是不是也是後制的 05/17 09:51
141F:推 zxcghjko: K 05/17 09:51
142F:→ SHOTN17: 前大哥猜错球 05/17 09:51
143F:推 metro721: 喔 水 05/17 09:51
144F:→ jiaxie: 黑松金可以做更好,但他没有 05/17 09:51
145F:→ hi750403: 大哥再见 05/17 09:51
146F:→ TonyGonsolin: 来个DP 05/17 09:52
147F:→ hi750403: 乾吓死 05/17 09:52
148F:→ hi750403: 奶头别吓我 05/17 09:52
149F:推 freetomove: 咬到 05/17 09:52
150F:→ hi750403: 再来 05/17 09:53
151F:推 zego41: 咬到 05/17 09:53
152F:推 cy97: 今天也是戴军绿色帽子,是什麽纪念活动吗? 05/17 09:53
153F:→ hi750403: 司机准喔 05/17 09:54
154F:→ hi750403: 军人纪念死日 05/17 09:54
155F:→ hi750403: 打错军人纪念日 05/17 09:54
156F:推 crayon1988: KK 05/17 09:54
157F:推 daydreamer13: K! 05/17 09:54
158F:→ CaminoI: 下庄 05/17 09:54
159F:→ hi750403: 司机good 05/17 09:54
160F:推 ScotchWhisky: 水 05/17 09:55
161F:推 benboy: Kkkkkk 05/17 09:55
162F:推 NowQmmmmmmmm: 美国军人节都会戴军绿色帽子 05/17 09:55
163F:推 TonyGonsolin: KKK 05/17 09:55
164F:推 Getbackers: KKK 05/17 09:55
165F:→ hi750403: 很杀的司机 05/17 09:55
166F:推 ae2622: 司机赞哦 05/17 09:55
167F:→ hi750403: 打线再来吧 05/17 09:55
168F:推 hexokinase: soler打完架之後就坏了 05/17 09:55
169F:推 NowQmmmmmmmm: Armed Forces Day美国五月第三个星期六限定 05/17 09:55
170F:→ cyclohexane: 第一球那个也算安打喔 05/17 09:56
171F:推 woddy: 转播上,本後的广告都是後制的 05/17 09:57
172F:推 jiaxie: Muncy 一看二挥三振! 05/17 09:57
173F:→ hi750403: 疑 05/17 09:57
174F:推 crayon1988: K 05/17 09:57
175F:→ hi750403: soriano还是可怕 05/17 09:58
176F:→ crayon1988: 老师居然连两球外角低没被骗 05/17 09:58
177F:推 memosore: 萝卜司机加油!我喜欢萝卜司机 05/17 09:59
178F:→ hi750403: 凉凉的 05/17 09:59
179F:→ hi750403: 老师缠斗 05/17 09:59
180F:→ hi750403: 老师没了 05/17 10:00
181F:推 jiaxie: Hernandez 满球数,三垒滚地OUT 05/17 10:00
182F:推 daydreamer13: 还行 05/17 10:00
183F:推 disasterD: 回稳了 真的满强的 05/17 10:00
184F:推 crayon1988: 如风 05/17 10:00
185F:→ jiaxie: Call 内野滚地OUT 05/17 10:00
186F:推 ScotchWhisky: 风 05/17 10:00
187F:→ daydreamer13: 还好第一局有把握住先得一分 05/17 10:00
188F:→ hi750403: 凉 05/17 10:01
189F:推 kitvxq: 太快了吧 05/17 10:01
190F:推 Getbackers: 如风 05/17 10:01
191F:→ riripon: 抠毫无期待... 05/17 10:01
192F:推 chienen: soriano回稳後还是超强 05/17 10:01
193F:→ hi750403: 看来投手回温了。守住好这一分先 05/17 10:01
194F:→ hi750403: 阿就王牌@-@ 05/17 10:01
195F:→ asd45654: 对方这位超强 今天投手战不意外 05/17 10:02
196F:推 crayon1988: 差点 05/17 10:03
197F:推 daydreamer13: 还好界外 05/17 10:03
198F:推 hi750403: 怕 05/17 10:03
199F:→ hi750403: 司机&_& 05/17 10:04
200F:→ hi750403: 怕别再来 05/17 10:04
201F:→ crayon1988: BB 05/17 10:04
202F:→ daydreamer13: 好难缠 05/17 10:04
203F:→ hi750403: 满阿 05/17 10:05
204F:→ hi750403: 按阿危机 05/17 10:05
205F:推 Getbackers: 2局30球,那今天司机只能撑6局 05/17 10:05
206F:推 SHOTN17: 坏球偏多 今天吃局数难了 05/17 10:05
207F:推 virginmary: 卵葵协防榎包勾使??? 05/17 10:06
208F:→ daydreamer13: ………… 05/17 10:06
209F:→ SHOTN17: 阿呆儿 = = 05/17 10:06
210F:→ crayon1988: 笑死 05/17 10:06
211F:推 jiaxie: 这什麽鬼啊 05/17 10:06
212F:推 ScotchWhisky: 赚到 05/17 10:06
213F:→ hi750403: 干,,又是你 05/17 10:06
214F:推 JWalk77: 还杀得到?? 05/17 10:06
215F:推 faratia: 笑死 05/17 10:06
216F:推 NowQmmmmmmmm: …. 05/17 10:06
217F:推 pca0306: 经典老师 05/17 10:06
218F:推 hipnos: 送大礼 又回送大礼= = 05/17 10:06
219F:→ citpo: 笑死 Adell 没跑 05/17 10:06
220F:→ daydreamer13: 这什麽剧本 05/17 10:06
221F:推 zego41: 老师已经拚了 05/17 10:06
222F:推 nigatsuki: 老师…… 05/17 10:06
223F:推 CaminoI: 老师自搞自救 05/17 10:06
224F:推 benjaminliao: 这到底是啥 05/17 10:06
225F:→ NowQmmmmmmmm: 在干嘛啦 05/17 10:06
226F:推 metro721: 老师.... 05/17 10:06
227F:推 zxcghjko: 还好还是抓到一个 05/17 10:06
228F:→ pca0306: 结果还杀到 笑死 05/17 10:06
229F:→ brian455461: 我看了什麽XD 05/17 10:06
230F:推 murmur38: 两边都在雷 笑死 05/17 10:06
231F:推 dasbado: 笑死 05/17 10:06
232F:推 a0939877325: 老师拚全力了 05/17 10:06
233F:推 lupin1970: 老师你到底 05/17 10:06
234F:嘘 FOREVER49KG: 有很难接吗? 05/17 10:06
235F:推 hwer7850: LOL 05/17 10:06
236F:→ hi750403: 哈哈我该说啥 05/17 10:06
237F:推 tupacshkur: 防守烂到炸啊 05/17 10:06
238F:推 aszxcvn: XD 05/17 10:06
239F:推 Pro80: 自制NP= = 05/17 10:06
240F:推 Yjizz: 接一半 05/17 10:06
241F:推 ck326: 这球甚麽鬼啊,有够综艺 05/17 10:06
242F:推 cklovework: 老师.. 05/17 10:06
243F:推 nightcrow: 老师:这是孔明的陷阱啦 05/17 10:06
244F:推 alain: 原来是故意没接到的吗… 05/17 10:06
245F:→ hi750403: 有啦友一个 05/17 10:06
246F:→ nigatsuki: 笑死折返跑 05/17 10:06
247F:→ SHOTN17: 二垒安打变野选 打者:阿呆儿 你…… 05/17 10:06
248F:推 klbbt357: 一开始以为接到又回去了吧 05/17 10:06
249F:→ brian455461: 接到掉出来 跑者已经回去了 05/17 10:07
250F:→ crayon1988: 还好结果一样... 05/17 10:07
251F:推 michael128: 第二动作? 05/17 10:07
252F:→ CaminoI: 小金已经拉到极限了 05/17 10:07
253F:推 kevinsun0423: 这也行 05/17 10:07
254F:推 jason2325: 笑死 超衰 05/17 10:07
255F:推 sixsix666: 西语老师连这种都接不到喔……… 05/17 10:07
256F:→ daydreamer13: 西语老师:其实这是计中计 05/17 10:07
257F:→ angelmax: 笑死 老师综艺 05/17 10:07
258F:推 realmd: 真的是接到了 但又掉了 05/17 10:07
259F:→ tupacshkur: 老师的防守烂到哭 05/17 10:07
260F:推 sediments: 应该要算第二动作 05/17 10:07
261F:推 yangtsur: 不用道歉 立刻自救 05/17 10:07
262F:→ citpo: 安打球被队友搞没了 05/17 10:07
263F:推 vgil: 笑死 一垒没跑 05/17 10:07
264F:→ zego41: 结果好像一样 05/17 10:07
265F:→ CaminoI: 老师防守真的烂 05/17 10:07
266F:推 jacky77437: 一开始看起来真的是接到呀XD 05/17 10:07
267F:→ zxcghjko: 挑战失败 05/17 10:07
268F:→ JWalk77: 削边 05/17 10:07
269F:推 hpfan: 笑烂这样也行 05/17 10:07
270F:推 Beakidd: 出包秒道歉,还有这招 05/17 10:07
271F:→ hipnos: 还送一个挑战大礼 05/17 10:07
272F:→ metro721: 挑战 05/17 10:07
273F:推 roylee1214: 挖喔 这球极限了 05/17 10:07
274F:→ asd45654: 补救到 还行 05/17 10:07
275F:推 SULAjardin: 2个雷包造就了这个play 05/17 10:07
276F:推 Exterminium: 正常的外野手肯定是接的到的啊 05/17 10:07
277F:推 HSyiee: 这还好吧 谁知道回头之後他撞到墙又掉出来 05/17 10:07
278F:推 DPP48: 竟然削到 05/17 10:07
279F:推 sam21323: 大哥传到也很chill 05/17 10:07
280F:→ JustWinslow: 老师再搞 另一个也在搞 05/17 10:07
281F:推 Mryuan: 外野:上当了 呵 05/17 10:07
282F:推 Getbackers: 西语老师第一时间很像接杀 05/17 10:08
283F:→ Exterminium: 可是处理这球的是西语就... 05/17 10:08
284F:推 moneychen: 其实接到了 05/17 10:08
285F:推 vovovo: 看到进手套就背对跑回去,哪看得到後面发生什麽事 05/17 10:08
286F:推 sun2014: 这如果是金慧成要被骂了 05/17 10:08
287F:→ CaminoI: 不愧是炉主 搞自己 05/17 10:08
288F:推 s83106: 不能算第二动作吗? 05/17 10:08
289F:推 NowQmmmmmmmm: 综艺大联盟 05/17 10:08
290F:→ DPP48: 凉了 05/17 10:08
291F:推 z2004hume: HEHEHE 虾78跑 05/17 10:08
292F:推 SHOTN17: 他做到了! 05/17 10:08
293F:推 RoaringWolf: 接杀接了一半,虽然结果是一样 05/17 10:08
294F:推 aszxcvn: 接到了 05/17 10:08
295F:推 murmur38: 他做到了 05/17 10:08
296F:→ Getbackers: 又是找老师 05/17 10:08
297F:→ wl2340167: gameplay一阵混乱 一下没出局一下变出局 05/17 10:08
298F:推 Yjizz: 跑者反应没问题 是因为掉了才又折返 05/17 10:08
299F:→ zego41: 有接到 但是老师撞墙手软掉出来 05/17 10:08
300F:推 jiaxie: Adell从Hernandez身上看到以前的自己 05/17 10:08
301F:推 don323: 大家开始知道要打到左边 05/17 10:08
302F:推 alain: 这次是真的接到了XD 05/17 10:08
303F:→ HSyiee: 他没有拿球的动作啊,他球夹在手套前端撞到墙调出来的 05/17 10:08
304F:推 YummyCurry: 笑死大柠檬的跑垒观念 05/17 10:09
305F:→ HSyiee: *掉出来 05/17 10:09
306F:→ brian455461: 自己撞掉算什麽第二动作zz 05/17 10:09
307F:推 daydreamer13: 不敢挑战了 05/17 10:09
308F:推 crayon1988: 超海 05/17 10:09
309F:推 ScotchWhisky: 海 05/17 10:09
310F:→ Getbackers: 欧哈皮手没事吧? 05/17 10:09
311F:推 zxcghjko: 不敢拍 05/17 10:09
312F:→ Exterminium: 只能说跑者倒楣 观念没错 遇到一个守备稀烂的 05/17 10:09
313F:→ SHOTN17: 危! 05/17 10:09
314F:→ jiaxie: 木屐飞扑失败 05/17 10:09
315F:推 sqtcw1122: 这球跟跑垒观念一点关系都没有好吗 05/17 10:09
316F:推 hi750403: 今天的大哥搞,, 05/17 10:10
317F:→ crayon1988: EV101.5mph 05/17 10:10
318F:推 freetomove: 木屐今天 05/17 10:10
319F:→ alain: 还好刚刚老师有演到不然就掉分了 05/17 10:10
320F:→ hi750403: 这局球球用好多 05/17 10:10
321F:推 klbbt357: 那球接到一定回去的啦 谁知道又掉出来 05/17 10:10
322F:推 chienen: 今天大哥会上演道歉野球吗 05/17 10:10
323F:→ crayon1988: 下庄 05/17 10:10
324F:→ daydreamer13: 下庄! 05/17 10:10
325F:→ SHOTN17: 锁! 05/17 10:10
326F:推 vgil: siri 05/17 10:10
327F:推 metro721: 加油 司机就是让你打的投手 05/17 10:10
328F:→ jiaxie: 中飞OUT,好险无事下庄 05/17 10:10
329F:推 biosphere: SIRI还球 05/17 10:10
330F:→ hi750403: 阿阿好险 05/17 10:10
331F:→ klbbt357: 而且还不是马上掉出来 05/17 10:10
332F:推 JWalk77: 下庄 05/17 10:10
333F:→ zxcghjko: 还是下庄 05/17 10:11
334F:推 roylee1214: 大哥额度已经先存一个了 还好 05/17 10:11
335F:→ Getbackers: 但用球好多 05/17 10:11
336F:→ hi750403: 没局都惊险 05/17 10:11
337F:→ hi750403: 司机比较耐操还可以投几颗 05/17 10:11
338F:推 woddy: 司机:fxxk 05/17 10:11
339F:→ hi750403: 打线加油阿希望可以打到 05/17 10:11
340F:→ asd45654: 难说 司机之前也有前两局球数多 後来省回来的案例 05/17 10:12
341F:推 CaminoI: 司机被搞 05/17 10:12
342F:推 biosphere: 一看二挥 05/17 10:13
343F:推 jiaxie: Kim 吊中挥空吃K 05/17 10:13
344F:推 SHOTN17: 王牌回稳了 05/17 10:14
345F:推 FOREVER49KG: 好烂 05/17 10:14
346F:推 zxcghjko: 丑 05/17 10:14
347F:推 crayon1988: 持续下修 05/17 10:14
348F:推 woddy: 小金:阿C 05/17 10:14
349F:推 daydreamer13: ? 05/17 10:14
350F:推 kevinsun0423: ? 05/17 10:14
351F:推 zego41: 差这麽多 被海一颗 05/17 10:14
352F:推 ScotchWhisky: 可以开轰吗 被村神海放了馁 05/17 10:14
353F:→ jiaxie: 笑死要喊暂停,主审跳出来说我自己要暂停 05/17 10:14
354F:→ FOREVER49KG: 今年拼CY拉 05/17 10:15
355F:→ daydreamer13: 钓到一颗 05/17 10:15
356F:推 zhijiahu: K 05/17 10:15
357F:推 SHOTN17: 阿姨!! 05/17 10:15
358F:推 GuestYee: 唉伊 05/17 10:15
359F:推 sediments: 哀一 05/17 10:15
360F:推 zxcghjko: 阿姨 05/17 10:15
361F:→ jiaxie: 爱衣讯号出现! 05/17 10:15
362F:推 biosphere: 阿姨 05/17 10:15
363F:推 Axwell: 阿姨 05/17 10:15
364F:推 crayon1988: 久违的阿姨 05/17 10:15
365F:推 same60710: 又叫了 05/17 10:15
366F:推 freeview: 又哀 05/17 10:15
367F:推 jimmily: 阿姨! 05/17 10:15
368F:推 yang826: 哈哈哈 05/17 10:15
369F:→ ScotchWhisky: 哎呀 05/17 10:16
370F:推 angel1314: 唉ㄧ 05/17 10:16
371F:推 murmur38: 阿姨 05/17 10:16
372F:推 stevenwei34: 一代 05/17 10:16
373F:推 raylock1216: 哎呀~ 05/17 10:16
374F:→ Yjizz: 阿姨 05/17 10:16
375F:→ citpo: 打到没护具的後腿 05/17 10:16
376F:推 CavendishJr: 阿姨!!! 05/17 10:16
377F:→ CaminoI: 表情包+1 05/17 10:16
378F:→ ykes60513: 自打球 痛啊 05/17 10:16
379F:→ jiaxie: 反弹中左膝 05/17 10:16
380F:→ SHOTN17: 99! 05/17 10:16
381F:推 pca0306: 今天一直自打球 痛死 05/17 10:16
382F:推 pandergast: 浮夸男 05/17 10:16
383F:→ JoyceCr0z: 阿姨 05/17 10:16
384F:推 ichihnice: 阿姨 05/17 10:16
385F:推 heaven12: 大谷第二打席BB 05/17 10:16
386F:推 kotorichan: k 05/17 10:16
387F:→ crayon1988: 好选 05/17 10:16
388F:→ CaminoI: BB 05/17 10:16
389F:→ SHOTN17: 有耐心 你谁!! 05/17 10:16
390F:推 daydreamer13: 不乱挥的大谷 05/17 10:16
391F:推 hi750403: 笑死又bb 05/17 10:16
392F:推 zego41: 2BB了 05/17 10:16
393F:推 luca714: 今天不错欸 真的蛮有耐心的 05/17 10:16
394F:→ Yjizz: 有选 05/17 10:17
395F:→ zxcghjko: 选得好 05/17 10:17
396F:→ jiaxie: 笑死 满球数选到BB,几乎没好球 05/17 10:17
397F:推 JWalk77: 闪 05/17 10:17
398F:→ ScotchWhisky: 又BB…. 05/17 10:17
399F:→ JoyceCr0z: 对大谷应该不用催球速 05/17 10:17
400F:推 hipnos: 又选 05/17 10:17
401F:推 wl2340167: 选烂 黏 05/17 10:17
402F:推 Tr3vyy: 又BB 05/17 10:17
403F:推 aszxcvn: 不给你打 05/17 10:17
404F:→ angel1314: 优选 05/17 10:17
405F:推 Getbackers: 2bb翔平业绩达标 05/17 10:17
406F:→ crayon1988: 开始有耐心是好迹象 05/17 10:17
407F:推 wcccwccc: BB 05/17 10:17
408F:推 hpfan: 今天有机会猛保赏? 05/17 10:17
409F:推 nightcrow: 今天目标是猛B赏 05/17 10:17
410F:→ CaminoI: 今天开启选球当卤蛋模式 05/17 10:17
411F:推 metro721: 交差 呵呵 05/17 10:17
412F:推 JustWinslow: B到死 05/17 10:17
413F:→ pca0306: 这麽怕 不如直接比4 05/17 10:17
414F:→ tctv2002: 跟比4差不多 05/17 10:17
415F:→ daydreamer13: Soriano:不对啊 我看之前他都乱挥 05/17 10:17
416F:→ heaven12: 盗垒成功 05/17 10:17
417F:推 nigatsuki: 这是好方向 05/17 10:17
418F:→ jiaxie: 笑死SB! 05/17 10:17
419F:→ zego41: 选球有复活应该是好迹象 05/17 10:17
420F:→ JWalk77: SB 05/17 10:17
421F:→ zxcghjko: 盗 05/17 10:17
422F:→ Tr3vyy: 主场牵制被嘘???? 05/17 10:17
423F:推 jimmily: 盗垒成功 05/17 10:17
424F:→ crayon1988: 腿哥SB 05/17 10:17
425F:→ SHOTN17: 今年盗垒还没失败过!!! 05/17 10:17
426F:推 biosphere: 怕双杀 05/17 10:17
427F:→ hi750403: 笑死又跑 05/17 10:17
428F:→ Getbackers: 跑了? 05/17 10:17
429F:推 gache0824: 投手都不给他打 05/17 10:18
430F:→ hipnos: 偷跑! 05/17 10:18
431F:→ angel1314: 有人在现场? 05/17 10:18
432F:→ jiaxie: 刚才也是乱挥啊,只是你坏球太多了 05/17 10:18
433F:→ Yjizz: 阿翔还偷垒 05/17 10:18
434F:→ heaven12: 上三 05/17 10:18
435F:→ ScotchWhisky: 刷一个SB 05/17 10:18
436F:推 g204094: 又慢又快 05/17 10:18
437F:推 pb1101: 腿哥 05/17 10:18
438F:推 billy78216: 盗谷!! 05/17 10:18
439F:推 Aldousphyx: 球有看清楚 有休息补眠有差 05/17 10:18
440F:→ aszxcvn: 脚很长 05/17 10:18
441F:→ nightcrow: 好久没刷的 SB 05/17 10:18
442F:推 CaminoI: 上三垒 05/17 10:18
443F:推 don323: 小水枪又偷跑 05/17 10:18
444F:推 GuestYee: 今天是腿哥 05/17 10:18
445F:推 CavendishJr: 原来本季盗垒才刚追上全垒打喔 05/17 10:18
446F:→ SHOTN17: 三垒 二哥加油 05/17 10:18
447F:推 webber04: 选2BB又盗垒 打前东家特别卖力ㄟ 05/17 10:18
448F:→ zxcghjko: 上三垒 05/17 10:18
449F:→ jiaxie: 木屐 右外飞球OUT,笑死又跑到3B了 05/17 10:18
450F:→ Yjizz: 但左手还是撑地煞车 05/17 10:18
451F:→ nigatsuki: 没办法打就跑 05/17 10:18
452F:推 akujiki: 拼塞扬的人在盗垒 05/17 10:18
453F:→ hpfan: 腿哥模式 05/17 10:18
454F:→ jimmily: 今天腿哥全开 05/17 10:18
455F:推 yangtsur: 腿哥 05/17 10:18
456F:→ daydreamer13: 喔喔喔喔喔喔 再拼一分 05/17 10:18
457F:→ angel1314: 今天很认真跑 05/17 10:18
458F:→ wcccwccc: 腿哥 05/17 10:18
459F:推 alain: 这投手也太会跑 05/17 10:18
460F:推 Iver3on5566: 欢呼声有够大 05/17 10:18
461F:→ Tr3vyy: 又到3垒了 05/17 10:18
462F:→ gache0824: bb就盗,看你下次还敢不敢bb 05/17 10:18
463F:→ CaminoI: 休够有体力 05/17 10:18
464F:推 leion237: 跑不停 05/17 10:18
465F:推 kotorichan: 用手撑地 05/17 10:18
466F:推 JeremyWu: 裤子都爆了 05/17 10:18
467F:推 tupacshkur: 腿哥 05/17 10:18
468F:推 Mryuan: 劳工之光 05/17 10:18
469F:→ Getbackers: 萝卜:你不是要赛扬吗? 05/17 10:19
470F:推 littlebug421: 有睡饱 过动 05/17 10:19
471F:推 FAYeeeeeeee: 大谷生涯有盗过本吗? 05/17 10:19
472F:→ don323: 来个抱头吧 05/17 10:19
473F:推 wl2340167: 腿哥模式启动 05/17 10:19
474F:→ CaminoI: 以前也是主场阿 05/17 10:19
475F:→ nightcrow: 上点强度不然没球打 05/17 10:19
476F:推 FOREVER49KG: 自由人来一支拜托 05/17 10:19
477F:→ metro721: 有 三垒 翔平今年决定要冲了吗 05/17 10:19
478F:推 mo1010174: 回娘家很嗨 05/17 10:19
479F:推 RoaringWolf: 今年尻不出来,决定靠腿吗 05/17 10:19
480F:推 crayon1988: 0 05/17 10:19
481F:推 hi750403: 乾气死 05/17 10:20
482F:→ CaminoI: 自由人…… 05/17 10:20
483F:推 zxcghjko: 残 05/17 10:20
484F:推 ScotchWhisky: 残 05/17 10:20
485F:→ jiaxie: Freeman 内野鸟滚OUT,笑死刷不到R 05/17 10:20
486F:→ Tr3vyy: 凉 05/17 10:20
487F:→ leion237: 白跑 05/17 10:20
488F:→ Getbackers: 大谷跑得这麽辛苦 05/17 10:20
489F:推 ericyo: 做白工 05/17 10:20
490F:推 zego41: 盗一个又冲一个回不来 05/17 10:20
491F:→ nightcrow: 刷不到R 05/17 10:20
492F:推 ycsheaven: 腿哥在那边跑步 05/17 10:20
493F:推 JustWinslow: 大谷跑到累 05/17 10:20
494F:推 pca0306: 白跑的一局 05/17 10:20
495F:→ nigatsuki: 有 他有盗过本垒 05/17 10:20
496F:推 don323: 怎麽刚刚笑死看起来好像跑的很累的样子 05/17 10:20
497F:推 wcccwccc: 白跑了呜呜 05/17 10:20
498F:推 tsanning: 可惜 05/17 10:20
499F:→ metro721: 靠腿 更有威胁性 05/17 10:20
500F:嘘 newsbow: 05/17 10:20
501F:→ nigatsuki: 天使时期的事 05/17 10:21
502F:推 daydreamer13: 直接没收 05/17 10:22
503F:推 Yjizz: WOW 05/17 10:22
504F:推 crayon1988: NPPP 05/17 10:22
505F:推 zxcghjko: OMG 05/17 10:22
506F:推 hi750403: 司机好帅 05/17 10:22
507F:→ nigatsuki: Oh 05/17 10:22
508F:推 SHOTN17: 帅 = = 05/17 10:22
509F:推 CaminoI: 司机! 05/17 10:22
510F:推 jiaxie: 司机胯下捞鱼 05/17 10:22
511F:推 hipnos: 还好反应快! 05/17 10:23
512F:推 littlebug421: 自己都笑了 05/17 10:23
513F:推 webber04: 帅 05/17 10:23
514F:→ nigatsuki: 动作都还没收回来就接到球了 05/17 10:23
515F:→ luca714: 好扯 05/17 10:23
516F:→ hi750403: 司机好杀 05/17 10:23
517F:→ Yjizz: 差点中脚 反应够快 05/17 10:23
518F:推 z2004hume: 这没接到 脚可能会被打到耶 05/17 10:23
519F:推 zego41: 省起来 05/17 10:23
520F:→ daydreamer13: 这局要省回来 05/17 10:23
521F:→ hi750403: 这个大哥也好凉 05/17 10:23
522F:推 Getbackers: 杂技 05/17 10:23
523F:→ SHOTN17: 这局能省回来吗! 05/17 10:23
524F:→ daydreamer13: 萝卜司机:我好像有点强 05/17 10:23
525F:→ nigatsuki: 重播N次XD 05/17 10:23
526F:→ z2004hume: 比起接杀 脚没被球打中比较重要 05/17 10:24
527F:推 shinchen: 70麦大曲 05/17 10:24
528F:推 crayon1988: K 05/17 10:25
529F:→ daydreamer13: 钓到啦 05/17 10:25
530F:推 zxcghjko: K 05/17 10:25
531F:推 vivalavida: 好像甜茶 05/17 10:25
532F:推 mo1010174: 帅 05/17 10:25
533F:推 ae2622: 省一下球数 05/17 10:25
534F:推 TonyGonsolin: KKK 05/17 10:25
535F:推 anniewawa: 司机威风八面 05/17 10:25
536F:推 alain: 司机真的大进化啊 越来越有料 05/17 10:25
537F:推 don323: 偷偷来问一下。这两天怎麽各队都戴那个很丑颜色的帽子呀? 05/17 10:27
538F:推 zxcghjko: 不击 05/17 10:27
539F:推 biosphere: 军人周 05/17 10:28
540F:推 crayon1988: 傻看三球 05/17 10:28
541F:→ zxcghjko: 红中都不打 05/17 10:28
542F:→ NolanGorman: 致敬军人 05/17 10:28
543F:推 jiaxie: Smith 超甜球站着吃K 05/17 10:28
544F:推 hi750403: 加油阿打线 05/17 10:29
545F:→ jiaxie: Pages 挥空吃K 05/17 10:29
546F:→ hi750403: 乾好强阿 05/17 10:29
547F:推 zego41: 伸卡打不到 05/17 10:30
548F:推 JustWinslow: 这只王牌怎那麽强 05/17 10:30
549F:→ asd45654: 这球压的太准了 没话说 05/17 10:30
550F:推 alain: 王牌还是王牌 05/17 10:30
551F:→ hi750403: sori真的好强 05/17 10:30
552F:→ Tiger23: 好威,这样看第一局掉一分好亏 05/17 10:30
553F:→ jiaxie: Muncy 投手前鸟滚OUT 05/17 10:30
554F:推 ScotchWhisky: 又如风 05/17 10:30
555F:推 SHOTN17: 王牌回稳 强 05/17 10:30
556F:→ hi750403: 看来一开始是乱流 05/17 10:30
557F:推 daydreamer13: 强 05/17 10:30
558F:→ hi750403: 要守住这宝贵的一分了 05/17 10:31
559F:→ hi750403: 司机加油司机都加油 05/17 10:31
560F:→ asd45654: 真希望能再多缠斗一些 消耗他阿 跟他们拚牛棚 05/17 10:32
561F:推 linedrive: 2b? 05/17 10:33
562F:推 jiaxie: 打到左边就对了! 05/17 10:33
563F:推 SHOTN17: 危! 05/17 10:33
564F:推 hi750403: 丸子又来了 05/17 10:33
565F:→ DPP48: 手累耳好厉害 05/17 10:33
566F:推 daydreamer13: 凶 05/17 10:33
567F:推 biosphere: 打到墙外不如打到左外 05/17 10:33
568F:→ hi750403: 怕守住阿 05/17 10:33
569F:→ freeview: 浪漫 05/17 10:33
570F:推 alain: 大家都找左外了 05/17 10:33
571F:→ CaminoI: 左外好大一个洞 不打对不起自己 05/17 10:34
572F:→ jiaxie: 明天是LA OHTANI DAY,天使算是在LA市吗 05/17 10:34
573F:→ SHOTN17: 虫虫危机! 05/17 10:34
574F:→ citpo: 虫虫危机 05/17 10:34
575F:→ daydreamer13: 拿棒子赶虫 05/17 10:34
576F:→ hi750403: 蛤 05/17 10:34
577F:→ angelmax: 不要找这个老师啊 05/17 10:34
578F:推 woddy: ??? 05/17 10:34
579F:→ hi750403: 司机球球.. 05/17 10:35
580F:推 bcismylove: 棒打前东家 大谷会手软吗 05/17 10:35
581F:→ daydreamer13: 准! 05/17 10:35
582F:推 crayon1988: K 05/17 10:35
583F:→ hi750403: k 05/17 10:35
584F:→ SHOTN17: K 锁! 05/17 10:35
585F:→ woddy: 准 05/17 10:35
586F:推 biosphere: 准 05/17 10:35
587F:推 JWalk77: 准 05/17 10:35
588F:推 luca714: 强阿 05/17 10:35
589F:→ hi750403: 司机杀 05/17 10:35
590F:→ crayon1988: 昨天字卡有秀 大谷刷天使刷很爽 05/17 10:35
591F:→ hi750403: 水辣一颗 05/17 10:36
592F:→ crayon1988: 记得OPS1.2x吧 05/17 10:36
593F:→ hi750403: 到门口了守住阿 05/17 10:36
594F:→ woddy: 海 05/17 10:36
595F:→ crayon1988: 海 05/17 10:36
596F:→ hi750403: 天使都不敢挑战喔 05/17 10:36
597F:推 zxcghjko: 不敢拍 05/17 10:36
598F:推 roylee1214: 不拍吗?XD 05/17 10:36
599F:→ biosphere: 海一颗回来 05/17 10:36
600F:推 metro721: 海 05/17 10:36
601F:→ daydreamer13: 海到天上去了 05/17 10:36
602F:→ JWalk77: 第一次就他用掉的 05/17 10:36
603F:推 CaminoI: 前面有人太早用掉一次阿 05/17 10:36
604F:→ woddy: 剩一次挑战 05/17 10:36
605F:→ crayon1988: 前面失败一次变绑手绑脚 05/17 10:37
606F:→ hi750403: 已经海两颗都 05/17 10:37
607F:推 iori35i: 你再乱挑战r 05/17 10:37
608F:推 jacky77437: 这麽海不敢挑战 05/17 10:37
609F:推 jiaxie: 昨天首打席前字卡是10场5轰 05/17 10:37
610F:推 nightcrow: 天使的挑战蝴蝶效应影响太大了 05/17 10:37
611F:→ hi750403: 那只能保佑了 05/17 10:37
612F:→ SHOTN17: 有人 是他吗XDD 05/17 10:37
613F:→ CaminoI: 自己害到自己 05/17 10:37
614F:→ biosphere: 第一个挑战就是他用掉的 05/17 10:37
615F:→ hi750403: 司机撑住 05/17 10:37
616F:→ hi750403: xd 05/17 10:37
617F:推 chunhoo: NPPPP 05/17 10:37
618F:→ SHOTN17: 777777 05/17 10:37
619F:→ hi750403: 水辣 05/17 10:37
620F:推 luca714: np!!!!!!! 05/17 10:37
621F:→ daydreamer13: 哇靠 这守备太美 05/17 10:37
622F:推 duke0529: 大狗猛啊 05/17 10:37
623F:→ CaminoI: 怕黑帅阿 05/17 10:37
624F:推 DPP48: 哇喔 05/17 10:37
625F:推 Lawschool: 77777777 05/17 10:37
626F:→ crayon1988: NPPPPP 05/17 10:37
627F:推 Siika: 太神啦 05/17 10:38
628F:→ zxcghjko: NP 05/17 10:38
629F:→ jiaxie: 大狗!NP,滚动啊 05/17 10:38
630F:推 ScotchWhisky: 大狗!!! 05/17 10:38
631F:→ SHOTN17: 大狗!!! 05/17 10:38
632F:推 TonyGonsolin: 帅啊 又守住了 05/17 10:38
633F:推 gotohikaru: 哇肏 05/17 10:38
634F:→ woddy: 大狗!!!!!! 05/17 10:38
635F:→ JWalk77: NPPPPPPPPP 05/17 10:38
636F:→ hi750403: 哇靠干好扯 05/17 10:38
637F:推 u9596g12: 怕黑! 05/17 10:38
638F:→ citpo: NP@@@@!!!!!!!!!!!!!! 直接救一分 05/17 10:38
639F:推 Yjizz: BIG DOG 翻滚NP 05/17 10:38
640F:推 kilakit: 太帅 05/17 10:38
641F:推 a0939877325: 777777777777 05/17 10:38
642F:推 zego41: 怕黑接到啦 05/17 10:38
643F:推 yang826: 哇靠 05/17 10:38
644F:推 littlebug421: 大狗!!!!!! 05/17 10:38
645F:推 nigatsuki: NP超赞 05/17 10:38
646F:推 rota: NP!! 05/17 10:38
647F:→ daydreamer13: 扑接 转圈 起身 05/17 10:38
648F:推 Willdododo: 司机怎样都不会掉分欸 扯 05/17 10:38
649F:推 benjaminliao: 大狗!! 05/17 10:38
650F:→ CaminoI: 打错边 哈哈 05/17 10:38
651F:推 ils0104: 帕黑会飞啊 05/17 10:38
652F:推 freetomove: NP趴黑丝 05/17 10:38
653F:→ metro721: 怕黑 美技 05/17 10:38
654F:→ hi750403: 帕黑真的好扯才 05/17 10:38
655F:推 angel1314: 趴趴趴黑丝超NP 05/17 10:38
656F:→ nightcrow: 怕黑太帅了 05/17 10:38
657F:→ DPP48: 怒摔头盔了 05/17 10:38
658F:推 FunnyPotato: 猛 05/17 10:38
659F:→ billy78216: 头盔炸裂 05/17 10:38
660F:推 wcccwccc: 怕黑!!!! 05/17 10:38
661F:推 jason40311: 哇NP 05/17 10:38
662F:推 tupacshkur: Diving catch 05/17 10:38
663F:推 ae2622: 帕黑NP!!! 05/17 10:38
664F:推 helacell: 赞啦!!! 05/17 10:38
665F:→ luca714: 这好扯阿 05/17 10:38
666F:→ u9596g12: 打者暴怒 05/17 10:38
667F:→ woddy: 头盔-1 05/17 10:38
668F:推 beaglebubu: 梦回WS G7 05/17 10:38
669F:推 wryyyyyyyy: 太扯 05/17 10:38
670F:→ jiaxie: 帽子被摔分裂了 05/17 10:38
671F:推 Romulus: WTF 05/17 10:38
672F:推 webber04: 大狗凯瑞! 05/17 10:38
673F:→ JWalk77: 头盔爆了 05/17 10:38
674F:→ daydreamer13: 守备帅炸 05/17 10:38
675F:推 JustWinslow: 怕黑丝太扯了吧 05/17 10:38
676F:推 kevinsun0423: 扯 05/17 10:38
677F:→ jacky77437: 头盔炸裂 05/17 10:38
678F:推 marty7976: 哇靠咧怕嘿斯是鬼啊 05/17 10:38
679F:推 roylee1214: 超怒 头盔-1 05/17 10:38
680F:→ hi750403: 哇靠帕黑扯铃喔 05/17 10:38
681F:推 grade1kimo: 怕黑帅啦 05/17 10:38
682F:→ littlebug421: 头盔爆裂 05/17 10:38
683F:推 huangjyuan: 头盔表示 05/17 10:38
684F:推 b1987517: 头盔炸裂 05/17 10:38
685F:推 onejeff: 猛 05/17 10:38
686F:推 Axy8: 啊啊手要小心啊好可怕 05/17 10:38
687F:→ biosphere: 黑斯太屌了 头盔遭殃 05/17 10:38
688F:推 TM8CMC: 超美技 05/17 10:38
689F:推 kazu246: 大狗超抗 05/17 10:38
690F:推 YHS5566: 有点帅… 05/17 10:38
691F:→ ScotchWhisky: 炸裂!我指的是头盔! 05/17 10:38
692F:→ hi750403: 气噗噗 05/17 10:38
693F:推 alain: 回敬昨天的各种NP 帅惨了 05/17 10:38
694F:推 leion237: 还以为要敬礼,原来是要摔盔 05/17 10:38
695F:推 angelmax: 水啦 守住一分 05/17 10:38
696F:推 sam21323: 扯烂 05/17 10:38
697F:推 g204094: 好像慢动作一样 05/17 10:39
698F:→ CaminoI: 谁叫你不打左外 挑战怕黑 05/17 10:39
699F:→ DPP48: 这应该扑了2公尺有吧 05/17 10:39
700F:→ yang826: 帕黑是忍者吗 05/17 10:39
701F:推 a520978926: 头盔炸裂啦 05/17 10:39
702F:→ roylee1214: 不过刚刚手有点危险 05/17 10:39
703F:推 andyll2: 帽子都摔碎了欸 05/17 10:39
704F:→ zego41: 昨天都是天使接人家NP 05/17 10:39
705F:→ hi750403: 打线再来阿想法子破一下阿 05/17 10:39
706F:推 SphereDavid: 帕黑超扛 05/17 10:39
707F:推 Feeng: 超气 05/17 10:39
708F:→ alain: 被没收这种真的会很气啊 05/17 10:39
709F:→ SHOTN17: 说到大狗 当年还差点被送去天使www 05/17 10:39
710F:→ alain: 打左边一点就得分了 05/17 10:39
711F:→ JustWinslow: 打给西语老师才是对的 05/17 10:39
712F:推 crayon1988: 头盔:我容易吗 05/17 10:39
713F:→ hi750403: 自从去年帕黑那个g7跑步接球怎觉得他都理所当然 05/17 10:39
714F:推 halfmonster: 太猛 太拼了 05/17 10:39
715F:→ jiaxie: 当然气啊,前一打席2B,被Adell毁了,这次准安打被大狗咬 05/17 10:40
716F:→ hi750403: 对打左边就得分了xd 05/17 10:40
717F:推 realblank: 还以为要放弃了 原来是蓄力准备飞扑 05/17 10:40
718F:→ hi750403: 帕黑升级 05/17 10:40
719F:推 yene: 帕黑超扯 05/17 10:40
720F:→ jiaxie: 搞错人了,前打席是FO 05/17 10:40
721F:→ hi750403: 看重播还是觉得扯 05/17 10:40
722F:推 luca714: 司机吓到吃手手 05/17 10:40
723F:推 wryyyyyyyy: 吓到吃手 05/17 10:40
724F:→ hi750403: 老师你给我醒醒 05/17 10:40
725F:推 biosphere: 司机表情包+1 05/17 10:40
726F:推 littlebug421: 司机吓到吃手手Y 05/17 10:41
727F:推 CaminoI: 怕黑真的猛 05/17 10:41
728F:→ alain: 司机这什麽可爱小粉丝表情 05/17 10:41
729F:推 g204094: 美国司机好吃惊 05/17 10:41
730F:推 daydreamer13: 怕黑是不是在重播自己的美技 05/17 10:41
731F:推 Romulus: 这守备范围真的大到靠北 05/17 10:41
732F:→ woddy: 司机已湿 05/17 10:41
733F:推 nightcrow: 司机: OMG 05/17 10:41
734F:→ hi750403: 老师你虾子按 05/17 10:41
735F:→ crayon1988: Soriano真的强 05/17 10:41
736F:推 b038501: 回去看ipad看自己多帅 05/17 10:41
737F:→ CaminoI: 司机爱了 05/17 10:41
738F:推 ils0104: 马上看自己的NP吗?XD 05/17 10:41
739F:推 freetomove: 趴黑丝在看自己的slo mo 05/17 10:41
740F:推 wcccwccc: 司机大喊OMG 05/17 10:41
741F:→ hi750403: 很强阿王牌@_@ 05/17 10:41
742F:→ biosphere: 充满中南美浪漫气氛的挥棒 05/17 10:41
743F:推 benboy: 大狗生涯年了 05/17 10:41
744F:推 nigel711: 6k了 05/17 10:41
745F:→ hi750403: 而且球好省 05/17 10:41
746F:推 JoyceCr0z: 截图设成桌布 05/17 10:41
747F:推 took: 星期天放假一大早连看邓恺威先发再看道奇美技,可以这麽幸 05/17 10:41
748F:→ took: 福的吗 05/17 10:41
749F:→ crayon1988: 又是如风 05/17 10:42
750F:→ hi750403: 丸子这打线 05/17 10:42
751F:推 Axy8: 怕黑就是未来道奇的脸了 05/17 10:42
752F:→ nightcrow: 大狗今年不知道能不能进明星赛 05/17 10:42
753F:→ hi750403: 司机友休息吗 05/17 10:42
754F:推 lovecut: 滚地球大师… 05/17 10:42
755F:→ hi750403: 唉 05/17 10:42
756F:→ hi750403: 小金阿 05/17 10:42
757F:→ JoyceCr0z: 今天也是投手战 05/17 10:42
758F:推 angel1314: 如风 05/17 10:42
759F:→ hi750403: 喔!难道 05/17 10:43
760F:推 zego41: 太难打了 05/17 10:43
761F:→ hi750403: 虾虾的 05/17 10:43
762F:→ hi750403: 好险一开始有得分 05/17 10:43
763F:→ hi750403: 小金没了 05/17 10:43
764F:推 charmingpink: 出局如风 05/17 10:44
765F:推 jiaxie: 出局如风 05/17 10:44
766F:推 daydreamer13: 真稳 05/17 10:44
767F:推 JWalk77: 好鸟 05/17 10:44
768F:→ hi750403: 有够快速到无言 05/17 10:44
769F:推 zxcghjko: 如风 05/17 10:44
770F:推 SHOTN17: 笑死还在天使时 Sori还是胜利组牛 现在已经成长为Ace了 05/17 10:44
771F:→ hi750403: 司机加油 05/17 10:44
772F:→ angel1314: 今天的打线… 05/17 10:44
773F:→ zego41: 只有大哥打一支安打 05/17 10:44
774F:→ hi750403: 没法子王牌就是难 05/17 10:44
775F:推 crayon1988: 今年是真的强 05/17 10:44
776F:推 freetomove: 司机感觉还蛮有斗志的 05/17 10:44
777F:推 housny: 丸子打线 05/17 10:45
778F:→ hi750403: 变化真的大 05/17 10:45
779F:推 keler: 系统怎麽判断95 96 英哩是速球还是伸卡啊? 05/17 10:45
780F:→ asd45654: 这只真的强 这还真不怪打线凉 05/17 10:45
781F:→ hi750403: 司机耐操又好用加油 05/17 10:45
782F:→ hi750403: 司机来阿 05/17 10:46
783F:推 realblank: Soriano球速也没到非常快 但变化球可以投边角就很难打 05/17 10:46
784F:→ hi750403: 再来 05/17 10:46
785F:→ hi750403: 打左边就对了,, 05/17 10:47
786F:推 JoyceCr0z: 司机真的变强了 05/17 10:47
787F:推 DPP48: SIRI说话 05/17 10:48
788F:推 freeview: 球往左打就对了 05/17 10:48
789F:→ hi750403: 撑住阿 05/17 10:48
790F:→ hi750403: 老师那边是罩门 05/17 10:48
791F:推 akujiki: 很多小飞虫吗 05/17 10:49
792F:→ hi750403: 好险 05/17 10:49
793F:推 sharkmew: 天使球场好像虫很多 05/17 10:49
794F:→ freeview: 萝卜比赞 05/17 10:49
795F:→ hi750403: 司机准 05/17 10:49
796F:推 crayon1988: 求轻虐 05/17 10:50
797F:→ hi750403: 疑 05/17 10:50
798F:→ crayon1988: 下庄 05/17 10:50
799F:→ hi750403: 大哥谢谢 05/17 10:50
800F:推 zego41: 司机塞给你打 05/17 10:51
801F:→ hi750403: 好运司机 05/17 10:51
802F:推 sharkmew: 很容易PO吗? 05/17 10:51
803F:推 JustWinslow: 五局0失分 司机猛啊 05/17 10:51
804F:推 smallkop: 共虾小 05/17 10:51
805F:→ hi750403: 打线谁可以突破第二只呢 05/17 10:51
806F:推 nightcrow: 防守练习场 05/17 10:51
807F:→ hi750403: 多方也很强今天就真的投手战 05/17 10:52
808F:推 heaven12: 大谷第三打席GO 05/17 10:53
809F:→ hi750403: 笑死继续b吗 05/17 10:53
810F:推 crayon1988: 如风 05/17 10:53
811F:→ hi750403: 没了按 05/17 10:53
812F:推 daydreamer13: 哎呀 05/17 10:53
813F:推 jiaxie: 笑死 内野滚地OUT 05/17 10:53
814F:推 zego41: 打到布阵 05/17 10:53
815F:推 Yjizz: GO 05/17 10:53
816F:→ hi750403: 对方很省捏按 05/17 10:53
817F:推 CaminoI: 秒死 05/17 10:53
818F:推 zxcghjko: 进布阵 05/17 10:53
819F:→ hi750403: 耗一下阿 05/17 10:53
820F:推 nigatsuki: 布阵QQ 05/17 10:53
821F:推 luca714: 虫太多 一秒都不想多待 05/17 10:54
822F:→ hi750403: 虫子真多 05/17 10:54
823F:推 CavendishJr: 虫好多 05/17 10:54
824F:→ hi750403: 有机会 05/17 10:54
825F:→ daydreamer13: 虫影响到控球了吗 05/17 10:54
826F:→ CavendishJr: 台湾球场虫都是跑到应援台上XD 05/17 10:54
827F:→ hi750403: 大哥bb 05/17 10:54
828F:→ zego41: 笑死 又要送头 05/17 10:54
829F:→ FunnyPotato: 发疯啦 05/17 10:55
830F:→ daydreamer13: 没挑战了 05/17 10:55
831F:推 jimmily: 一直送,笑死 05/17 10:55
832F:→ hi750403: 蛤笑死天使 05/17 10:55
833F:→ CaminoI: 整颗out 05/17 10:55
834F:推 jacky77437: 笑死 05/17 10:55
835F:推 zxcghjko: 没挑战罗 05/17 10:55
836F:推 crayon1988: 差超多 05/17 10:55
837F:推 jiaxie: 木屐 连看5球选到BB 05/17 10:55
838F:推 windphilip: 这是看到什麽了 05/17 10:55
839F:推 SHOTN17: 欧哈皮被自己骗了吗www 05/17 10:55
840F:推 metro721: 哈哈 05/17 10:55
841F:推 u9596g12: 挑战没罗 05/17 10:55
842F:→ hi750403: 天使友事喔连续两天 05/17 10:55
843F:→ nigatsuki: 差了一颗球吧= = 05/17 10:55
844F:推 pb1101: 太多虫了吧 05/17 10:55
845F:推 JazMaHoJo: 差很多耶 捕手技能不够喔 05/17 10:55
846F:推 ae2622: 哇没挑战了 亏 05/17 10:55
847F:→ hi750403: 二哥来阿靠你 05/17 10:55
848F:→ u9596g12: 被自己接球技巧骗到 05/17 10:55
849F:推 nightcrow: 结果两次都挑战在对的 05/17 10:55
850F:→ nigatsuki: 才六局 不妙喔天使 05/17 10:55
851F:推 zealotlai274: 呆子,这麽明显 05/17 10:55
852F:→ hi750403: sori唉 05/17 10:56
853F:→ zego41: 尾劲太强捕手都被骗 05/17 10:56
854F:推 sharkmew: 好多虫 感觉超恶的 05/17 10:56
855F:推 Lisaann: 为啥虫可以那麽多啊 05/17 10:56
856F:→ jacky77437: 虫好多 05/17 10:56
857F:→ ae2622: 虫也太多 发疯 05/17 10:56
858F:→ z24262324: 天使烂真的不是没有原因的… 05/17 10:56
859F:→ hi750403: 二哥加油 05/17 10:56
860F:推 freetomove: 好多虫 05/17 10:56
861F:→ u9596g12: 美国大医生的节奏 05/17 10:56
862F:→ JazMaHoJo: 虫真的太多了 05/17 10:56
863F:推 freeview: 他们定力真的好 虫子飞成那样也没在挥手闪躲眨眼 05/17 10:56
864F:→ citpo: 闹场 05/17 10:56
865F:→ u9596g12: 飞虫警告 05/17 10:56
866F:推 Amberla: 是不是被虫干扰了 05/17 10:56
867F:→ Lisaann: 而且都在同一个地方飞 05/17 10:56
868F:→ hi750403: 疯掉 05/17 10:56
869F:→ metro721: 虫有够多的 自由人的镜头 05/17 10:56
870F:推 crayon1988: 虫虫危机 05/17 10:57
871F:→ zego41: 二哥选一下 05/17 10:57
872F:推 zxcghjko: 虫真的好多 05/17 10:57
873F:→ Lisaann: 不能喷个杀虫剂吗 05/17 10:57
874F:→ sally09287: 太多虫了 05/17 10:57
875F:→ hi750403: sori素不素被虫虫烦死了 05/17 10:57
876F:→ u9596g12: 握草 太多了 05/17 10:57
877F:→ crayon1988: 投手丘也很多虫 明显被干扰到了 05/17 10:57
878F:推 daydreamer13: 感觉Soriano快被虫烦死了 05/17 10:57
879F:推 CaminoI: 虫虫大 05/17 10:57
880F:→ hi750403: 喷喷虫虫危机bb 05/17 10:57
881F:推 SHOTN17: 有机会!? 05/17 10:57
882F:→ zxcghjko: 连二BB 05/17 10:57
883F:→ CaminoI: 大干扰 05/17 10:57
884F:推 Beakidd: 虫虫危机啊 05/17 10:57
885F:→ JazMaHoJo: 应该被虫影响到了 05/17 10:57
886F:→ u9596g12: 谁在场边发动虫害啦 05/17 10:57
887F:推 z2004hume: 虫虫战术 05/17 10:57
888F:→ hi750403: 司机怎麽感觉都没事 05/17 10:57
889F:→ freetomove: 被虫影响了 05/17 10:57
890F:推 nigatsuki: 什麽虫?蚊子吗 05/17 10:57
891F:推 ycsheaven: 虫虫危机 太多了吧 05/17 10:57
892F:→ sally09287: 投手感觉要被虫搞疯 05/17 10:57
893F:推 jiaxie: Freeman 选到BB。MVP前三棒都有BB 05/17 10:58
894F:推 roylee1214: 超多虫 05/17 10:58
895F:→ hi750403: 要不素sori一直拍我都觉得司机无感觉 05/17 10:58
896F:推 di3xyo0z: 这到底是什麽虫 05/17 10:58
897F:→ freeview: 叫个暂停狂喷杀虫剂好了 05/17 10:58
898F:→ SHOTN17: 这种喷防蚊有效吗www 05/17 10:58
899F:→ CaminoI: 虫虫比较喜欢Soriano 毕竟是主场的虫 (欸) 05/17 10:58
900F:推 undream: 生化攻击控球-10 05/17 10:58
901F:→ hi750403: 影帝送大家回来吧 05/17 10:58
902F:→ zego41: 司机无感 越投越带劲 05/17 10:58
903F:推 safyrose: 投手丘上应该放一只电蚊拍 05/17 10:58
904F:推 realblank: 虫对打击 投球都很干扰 专注度会受影响 05/17 10:58
905F:→ Lisaann: 是蚊子吗? 05/17 10:58
906F:推 daydreamer13: 看起来会像具象化的飞蚊症吗 05/17 10:59
907F:→ hi750403: 要得分阿最好的机会 05/17 10:59
908F:→ CaminoI: 捕手中弹 05/17 10:59
909F:→ daydreamer13: 欧不 05/17 10:59
910F:→ u9596g12: HBP 05/17 10:59
911F:推 faratia: 欧哈皮快死了 05/17 10:59
912F:→ hi750403: 干痛 05/17 10:59
913F:推 z2004hume: 结果最痛的是捕手 05/17 10:59
914F:→ freeview: DP 05/17 10:59
915F:推 zxcghjko: 又来 05/17 10:59
916F:推 crayon1988: 欧哈皮有够衰 05/17 10:59
917F:→ daydreamer13: 干超痛 05/17 10:59
918F:→ SHOTN17: 欧哈皮 干 = = 05/17 10:59
919F:推 JWalk77: 砸到了 05/17 10:59
920F:→ zego41: 挖靠 又中招 太衰了 05/17 10:59
921F:推 jimmily: 欧哈皮太虽小了吧 05/17 10:59
922F:→ hi750403: 阿娘委夭寿喔 05/17 10:59
923F:推 ycsheaven: 好痛啊….捕手也太惨了 05/17 10:59
924F:推 JazMaHoJo: 太哀了吧 05/17 10:59
925F:推 benboy: 满垒计 结果补手….. 05/17 10:59
926F:推 nigatsuki: ….乾怎麽好像很严重欧哈皮 05/17 10:59
927F:→ u9596g12: 欧哈皮 :... 05/17 10:59
928F:推 memosore: 应该是摇蚊,敌避说不定有用 05/17 10:59
929F:推 AquaSKY: 痛 05/17 10:59
930F:推 beaglebubu: 双杀 05/17 10:59
931F:推 ericyo: 一颗球打到两个人? 05/17 10:59
932F:推 kevinsun0423: 挖靠 05/17 10:59
933F:→ SHOTN17: 男人的痛…… 05/17 10:59
934F:→ jiaxie: Smith HBP! NO HAPPY了 05/17 10:59
935F:→ citpo: 淡淡的哀伤 05/17 10:59
936F:→ Axy8: 天啊哈皮也太衰了 05/17 10:59
937F:推 Beakidd: 欧哈皮,完蛋 05/17 10:59
938F:→ JWalk77: 捕手怎麽也中 05/17 10:59
939F:推 luca714: 也太惨 05/17 10:59
940F:→ sally09287: 天啊好痛啊啊啊 05/17 10:59
941F:→ hi750403: 干好可怕 05/17 10:59
942F:推 pei1006: 天啊爬不起来..... 05/17 10:59
943F:推 zealotlai274: 一石二鸟 05/17 10:59
944F:推 carlchang092: 怎麽又中弹了QQ 05/17 10:59
945F:推 metro721: 哇还起不来 05/17 10:59
946F:推 Axwell: 这个痛的程度比昨天还强 05/17 10:59
947F:推 ScotchWhisky: 天啊 欧哈皮又… 05/17 11:00
948F:推 ae2622: 哇 捕手又被砸 辛苦了 05/17 11:00
949F:推 DPP48: 好痛 05/17 11:00
950F:→ u9596g12: 才刚回来 又是连续两天中弹 05/17 11:00
951F:→ citpo: God damned it 05/17 11:00
952F:推 angel1314: 这捕手好倒霉 05/17 11:00
953F:→ zxcghjko: 痛到起不来 05/17 11:00
954F:推 nightcrow: 好惨 05/17 11:00
955F:推 hwer7850: 超痛 05/17 11:00
档案过大!部分文章无法显示
956F:→ reader2714: 喷 05/17 12:24
957F:→ cdsjquiz: 投不进 05/17 12:24
958F:推 freeview: 只剩自由人还又小金没刷到H了 05/17 12:24
959F:推 a7788783: 选个保送应该没问题 05/17 12:25
960F:→ jiaxie: 难道要挤满垒再挑战一次笑死? 05/17 12:25
961F:→ sadmonkey: 75麦滑球? 05/17 12:25
962F:推 crayon1988: 1s3b 05/17 12:25
963F:推 Amberla: 给大谷一个打满贯的机会吧 05/17 12:25
964F:→ reader2714: 满 05/17 12:25
965F:→ inschool: 真的满垒了 05/17 12:25
966F:推 daydreamer13: 完全投不进去 05/17 12:25
967F:→ sadmonkey: 要投到死了 05/17 12:25
968F:推 SHOTN17: 好惨…… 05/17 12:25
969F:→ crayon1988: 轮到笑死了 一出满垒 05/17 12:25
970F:→ nigatsuki: 满 05/17 12:25
971F:推 zxcghjko: 满垒 05/17 12:25
972F:推 roylee1214: 要来罗 05/17 12:25
973F:→ a7788783: BB满垒,笑死来了 05/17 12:25
974F:推 fmtpeter: 来了来了,我要看大场面 05/17 12:25
975F:→ benboy: 满垒挑战大谷….. 05/17 12:25
976F:→ cdsjquiz: BB 05/17 12:26
977F:推 liao0607: 有趣了 05/17 12:26
978F:→ jiaxie: Kim 连看5球选到BB,全员上垒中! 1OUT满垒的道奇笑死登场 05/17 12:26
979F:推 zego41: 大谷又多凹一次了 05/17 12:26
980F:推 Getbackers: 满垒的笑死 05/17 12:26
981F:推 Riseagainst: 该来个货真价实出墙轰了吧 05/17 12:26
982F:推 alljerry04: 该打一发真的了吧 05/17 12:26
983F:推 pirates223: 满垒笑死登场 05/17 12:26
984F:推 JustWinslow: 来个GS吧 05/17 12:26
985F:推 TonyGonsolin: 尬一支吧 05/17 12:26
986F:推 aszxcvn: 该进补了吧 05/17 12:26
987F:推 nepenthes7: 笑死该来一发啦 05/17 12:26
988F:→ freeview: 至少9人都上垒了 05/17 12:26
989F:→ cdsjquiz: 大谷敢不敢 05/17 12:26
990F:推 Lawschool: 再一发啊 05/17 12:26
991F:推 realblank: 控球好惨 不知道要怎麽打 05/17 12:26
992F:推 tns97525: 补一发 05/17 12:26
993F:推 zaza1128: 大谷人很好,应该不会痛下杀手 05/17 12:26
994F:→ inschool: 有球打吗 05/17 12:26
995F:→ nigatsuki: 跑完应该没力了吧 我猜K 05/17 12:26
996F:→ pirates223: 敢不敢真的炸裂 05/17 12:26
997F:→ roylee1214: 夸张的姿势 05/17 12:26
998F:推 PttDreaming: 要来送幸福了吧 05/17 12:26
999F:推 webber04: 大谷会DP吗 05/17 12:26
1000F:推 norel147: 敢不敢一发满贯 05/17 12:26
1001F:→ loveisth520: 受伤就回不去了QQ 05/17 12:26
1002F:推 metro721: 惨 败战处理 05/17 12:26
1003F:→ crayon1988: 很闪 05/17 12:26
1004F:推 ScotchWhisky: 这控球…. 05/17 12:26
1005F:→ benboy: 没好球打 05/17 12:26
1006F:→ sadmonkey: 大谷应该没球打 05/17 12:26
1007F:→ a7788783: 要继续保送啊? 05/17 12:26
1008F:→ zego41: 这麽喷 也没有好球打 05/17 12:26
1009F:→ daydreamer13: 先能投进好球带吧 不然大谷等於没球打 05/17 12:26
1010F:→ cdsjquiz: 没球打 05/17 12:26
1011F:推 xpoooqx: 满垒BB 05/17 12:26
1012F:→ reader2714: 没球能打 05/17 12:26
1013F:→ roylee1214: 很闪 05/17 12:26
1014F:→ inschool: 笑死一脸怜悯 05/17 12:26
1015F:→ crayon1988: 先猜笑死当好人 05/17 12:26
1016F:→ jiaxie: 给肉哈丝保险分? 05/17 12:26
1017F:→ tns97525: 好惨投不进去了 05/17 12:26
1018F:→ nigatsuki: 他老哥一个中继已经投60球了… 05/17 12:27
1019F:推 ae2622: 投不进去 05/17 12:27
1020F:推 ichiro51arod: 大谷别捧场啊 05/17 12:27
1021F:→ fmtpeter: 强劲 05/17 12:27
1022F:推 luca714: 猛喔 05/17 12:27
1023F:→ cdsjquiz: 又H 05/17 12:27
1024F:→ inschool: HHH 太狠了 05/17 12:27
1025F:→ a7788783: 安打 05/17 12:27
1026F:→ daydreamer13: 大谷感觉没站好 05/17 12:27
1027F:推 oorange290: 大进补 05/17 12:27
1028F:推 zetatmrptt: 投到脚撑不住 05/17 12:27
1029F:推 carlchang092: 这也可以喔XDDD 05/17 12:27
1030F:推 Ferrari360: 好惨…. 05/17 12:27
1031F:→ alljerry04: 还是出不去 biu biu 05/17 12:27
1032F:推 angel1314: 哈 05/17 12:27
1033F:→ zaza1128: 刷,真烂,扛不出去 05/17 12:27
1034F:→ Lawschool: 干 那什麽打击姿势啦 05/17 12:27
1035F:→ crayon1988: 这也行XDDD 05/17 12:27
1036F:→ metro721: 投进去就好啦 05/17 12:27
1037F:推 jimmily: 大谷这姿势XDD 05/17 12:27
1038F:→ zxcghjko: 姿势跑掉还是2B 05/17 12:27
1039F:推 KanzakiRanko: 7777 05/17 12:27
1040F:推 zealotlai274: 来一发真才实料的 05/17 12:27
1041F:→ SHOTN17: 翔平 这什麽打法 0口0 05/17 12:27
1042F:推 Muting46: 刷 狠狠的刷 05/17 12:27
1043F:推 Axy8: 超丑 05/17 12:27
1044F:推 lafeelbarth: 打这个好好笑 05/17 12:27
1045F:推 realion: 甚麽夸张挥击姿势 05/17 12:27
1046F:推 YaLuBigRock: 坏人…… 05/17 12:27
1047F:推 nightcrow: 找不到准星 05/17 12:27
1048F:推 CCandyMan05: 这什麽挥棒XDDDD 05/17 12:27
1049F:→ Riseagainst: 到底甚麽诡异姿势不会拉伤吗 05/17 12:27
1050F:推 yangtsur: 大谷今天大刷分 05/17 12:27
1051F:→ benboy: 有啦 不给活路 肉哈热身吧 05/17 12:27
1052F:推 jkl85621: 大谷安起来 05/17 12:27
1053F:→ nepenthes7: 小枪腿哥大概0.5翔平 05/17 12:27
1054F:→ sadmonkey: 只会刷软投 05/17 12:27
1055F:推 alau: 狂刷数据 05/17 12:27
1056F:→ crayon1988: 跌倒2B 05/17 12:27
1057F:推 YHS5566: 这啥鬼 05/17 12:27
1058F:→ nigatsuki: 这姿势也太丑了大谷…… 05/17 12:27
1059F:推 befly10015: 大谷复活惹 05/17 12:27
1060F:→ zego41: 这麽高也要挥 05/17 12:27
1061F:推 vin312789: 好丑 05/17 12:27
1062F:推 asd3613: 完蛋,明天要不会打了 05/17 12:27
1063F:推 a2350221: 要醒了吗 05/17 12:27
1064F:→ daydreamer13: 滑一下还能安 05/17 12:27
1065F:推 leo79415: 杀人猪心 05/17 12:27
1066F:推 bear09931831: 今天有醒! 05/17 12:27
1067F:→ FunnyPotato: 刷子翔平 05/17 12:27
1068F:推 ZILY123: 偷刷 05/17 12:27
1069F:→ Getbackers: 一棒清垒! 05/17 12:27
1070F:推 norel147: 硬打高球清垒!!!!!!!! 05/17 12:27
1071F:→ ScotchWhisky: 真的老了 完全扛不出去 05/17 12:27
1072F:→ TonyGonsolin: 清磊了 05/17 12:27
1073F:推 grade1kimo: 又有丑图 05/17 12:27
1074F:推 WeGoStyle: 那姿势怎麽可以变这麽快啊? 05/17 12:27
1075F:推 littlebug421: 奇怪的姿势XD 05/17 12:27
1076F:→ jiaxie: 笑死 右外落地DOUBLE! 今天有扯 05/17 12:27
1077F:→ angel1314: 大谷刷打点 05/17 12:27
1078F:→ a7788783: 今天打点赚很大 05/17 12:27
1079F:→ ichiro51arod: 太神啦大进补 05/17 12:27
1080F:推 Cowyau: 鲁蛋大进补 05/17 12:27
1081F:→ roylee1214: 这什麽新打法吗 05/17 12:27
1082F:推 realmd: 欺负菜鸡 05/17 12:27
1083F:→ xpoooqx: 硬要打 状况回来了 05/17 12:27
1084F:推 pcgame7738: 笑死 05/17 12:27
1085F:推 mashmabo: 满垒没当好人 05/17 12:27
1086F:推 aa01081008tw: 5打点 05/17 12:27
1087F:推 tonywiner: 硬扛 05/17 12:27
1088F:→ JustWinslow: 偷刷 没品高中生 05/17 12:27
1089F:推 chenchunjui: 太狠了.... 05/17 12:27
1090F:推 b1987517: 补刀翔平 05/17 12:27
1091F:推 foxey: 无情刷分 05/17 12:27
1092F:推 CaminoI: 又安 差点站不稳 05/17 12:27
1093F:推 a90086a1000: 开刷 05/17 12:27
1094F:推 chienen: 对老东家太无情了 05/17 12:27
1095F:推 alain: 趁机刷数据耶 是个狠人 05/17 12:27
1096F:推 a7706888: 刷起来 05/17 12:27
1097F:推 e2167471: 这投手跟教练有仇? 05/17 12:27
1098F:推 freetomove: 大谷今天打点赚烂了 05/17 12:27
1099F:推 EIZOL768: 差一点点滑倒 05/17 12:27
1100F:→ Tiger23: 打完滑了一下 05/17 12:27
1101F:推 luweiwei: 大谷太脚滑了吧 05/17 12:27
1102F:推 gotohikaru: 111.7mph 今天有三打席打得很紮实 05/17 12:27
1103F:推 ghostl40809: 开刷 05/17 12:27
1104F:推 myloveflyfly: 好残忍 不忍心看下去 05/17 12:27
1105F:→ YaLuBigRock: 晕厥式挥棒 05/17 12:27
1106F:→ pirates223: 笑死还是打不出去 但清垒 05/17 12:27
1107F:→ tns97525: 太狠了不留情面狠狠地刷 05/17 12:27
1108F:→ eellee: 太无情了大谷 05/17 12:27
1109F:→ crayon1988: 今天的企划是打点吃到饱 05/17 12:27
1110F:推 bala73: 这三小 05/17 12:27
1111F:→ SHOTN17: 高砍式打法 = =? 有点意思…… 05/17 12:27
1112F:推 Texsogood: 刷起来 05/17 12:27
1113F:→ cdsjquiz: 为了OPS拼了 05/17 12:27
1114F:推 sally09287: 大谷狂赚打点 05/17 12:27
1115F:→ befly10015: 以前这种球大谷就轰出去了 05/17 12:28
1116F:→ webber04: 清垒了ㄟ 真的痛打老东家 05/17 12:28
1117F:→ YHS5566: 不要再打了 太残忍了 05/17 12:28
1118F:→ benboy: 大谷想调仰角结果重心不稳XD 05/17 12:28
1119F:推 rurutei: 打不完了! 05/17 12:28
1120F:推 chenstar1234: 换野手投啊 05/17 12:28
1121F:推 tsanning: 大谷挥之前还轻轻摇头感觉同情投手 05/17 12:28
1122F:→ ae2622: 姿势好丑XD 赚了好多打点 05/17 12:28
1123F:→ inschool: 面无表情 绝情谷 05/17 12:28
1124F:推 ushiwakamaru: 刷爆老东家 05/17 12:28
1125F:推 volleystyle: 姿势都变形了 05/17 12:28
1126F:→ PttDreaming: 不换代跑吗 05/17 12:28
1127F:推 jerrysaikou: 赚3分打点 05/17 12:28
1128F:推 glen: 有够不科学的打法 这也行 05/17 12:28
1129F:推 KLGlikeshit: 野手上场 05/17 12:28
1130F:推 CMPunk: 爽赚打点 05/17 12:28
1131F:推 nightcrow: 大谷看起来很不兴奋馁 05/17 12:28
1132F:推 sharkmew: 今天刷好多打点喔 05/17 12:28
1133F:→ jiaxie: 天使野手上了 05/17 12:28
1134F:→ zego41: 总欸看不下去了 再投下去会刷20分 05/17 12:28
1135F:→ nigatsuki: 终於要换野手了 05/17 12:28
1136F:推 VinceTW: 明天先发问天机率 05/17 12:28
1137F:→ Riseagainst: Prince Fielder式挥击 05/17 12:28
1138F:推 Redchain: 只挥击没有起步速度 05/17 12:28
1139F:→ FunnyPotato: 铃木哥终於要换人了 05/17 12:28
1140F:推 disasterD: 太刷了吧 05/17 12:28
1141F:推 Amberla: 道奇今天是要把这一两个月没打到的分数打回来吗 05/17 12:28
1142F:推 korzen: 还不换野手来投吗 05/17 12:28
1143F:→ rurutei: 野手上来 05/17 12:28
1144F:推 meyu1166: 笑死…… 05/17 12:28
1145F:推 leocheng: 卤蛋大进补 05/17 12:28
1146F:推 Axwell: https://i.mopix.cc/ZuF9wm.jpg 初速回来了 05/17 12:28
1147F:推 qazzaq3977: 发球机 刷数据 05/17 12:28
1148F:推 JWalk77: 换野手了 05/17 12:28
1149F:→ nigatsuki: 让中继投60球也很荒谬啊 05/17 12:28
1150F:推 safyrose: 111这才对 甚麽101 那小水枪在打的 05/17 12:28
1151F:推 Moselle: 总A很残忍欸 早该换人投了吧 05/17 12:28
1152F:→ realblank: 大谷一副想来支GS的挥棒 结果投太高角度拉不上去 05/17 12:28
1153F:→ cdsjquiz: 明天先发谁啊 05/17 12:28
1154F:→ alain: 投降输一半 没人了 05/17 12:28
1155F:推 guoja: 爽赚两安 爽赚打点 05/17 12:28
1156F:→ benboy: 天使先换野手上 05/17 12:28
1157F:推 Tanjiro: 这投手今年大谷如果要参加全垒打大赛可以找 05/17 12:28
1158F:→ nightcrow: 大谷:怎麽没出去 05/17 12:28
1159F:→ ScotchWhisky: 下半局可以看到Kike上来投吗 想他了 05/17 12:28
1160F:推 windphilip: 垃圾时间惹 05/17 12:28
1161F:推 s1040453: 这姿势.. 05/17 12:28
1162F:推 carlchang092: 换野手 道奇也换代打 05/17 12:28
1163F:→ tsanning: 今天看大谷终於彻底醒了 第一局就盗垒到第九局猛打赏 05/17 12:29
1164F:→ JWalk77: Kike 又还没回来 05/17 12:29
1165F:推 ZIQQ001: 终於换人了 05/17 12:29
1166F:推 lycium: 往死里打耶 05/17 12:29
1167F:→ metro721: 野手 可以啦 要去买便当了 05/17 12:29
1168F:→ volleystyle: 等等道奇是肉哈投球了吧 05/17 12:29
1169F:推 ginopun10477: 这打得到好猛 那麽高 05/17 12:29
1170F:推 Axy8: 这麽高能打111不错哦 感觉快回来了 05/17 12:29
1171F:推 wenzhao: 挥棒好卡哈哈哈哈 05/17 12:29
1172F:推 Mryuan: 可悲天使 05/17 12:29
1173F:→ foxey: 不换代跑让大谷休息? 05/17 12:29
1174F:推 ichiro51arod: 教练太残忍 05/17 12:29
1175F:→ ZIQQ001: ㄊㄞˋㄘㄢˊㄖㄣㄌㄜ 05/17 12:29
1176F:推 ray830330: 投手那个失误自己也该吞啦 但也投太多了吧 05/17 12:29
1177F:推 di3xyo0z: 第一次看到大谷打得这麽丑 05/17 12:29
1178F:推 AAABE: 天使好人 帮大谷找感觉 05/17 12:29
1179F:→ benboy: 垒上也可以换代跑了吧 05/17 12:29
1180F:→ ZIQQ001: 太残忍了 05/17 12:29
1181F:推 sasadog: 大谷的MVP还得靠天使啊 05/17 12:29
1182F:推 stevejack: 当初的赛扬3退化成这样 不胜唏嘘 05/17 12:29
1183F:推 Kemp5050: Rojas可以热身了 05/17 12:29
1184F:推 crayon1988: 应该不用用到Barnes了吧 可以省一个RP 05/17 12:29
1185F:推 myeunji: 也没猛打吧 05/17 12:30
1186F:推 socharge: 可惜没有换鳟鱼上来对决大谷复仇 05/17 12:30
1187F:推 sky070650: 今天刷老东家好开心 05/17 12:30
1188F:推 zego41: ESPINAL也刷 05/17 12:30
1189F:→ cdsjquiz: 刷起来 05/17 12:30
1190F:推 alljerry04: 天啊 XD 05/17 12:30
1191F:推 KLGlikeshit: 又安打哈哈哈哈哈 05/17 12:30
1192F:→ FunnyPotato: 连Espinal都有 05/17 12:30
1193F:→ stevejack: 天使野手 准欸 05/17 12:30
1194F:推 nigatsuki: 来就有是吧 05/17 12:30
1195F:推 qazzaq3977: 道奇要派谁去投 05/17 12:30
1196F:→ crayon1988: Rushing代打自由人 05/17 12:30
1197F:推 jiaxie: Espinal 代打鸟安! 05/17 12:30
1198F:→ pca0306: 打不完耶 05/17 12:30
1199F:推 reader2714: 刷刷刷 05/17 12:30
1200F:推 peter89000: 还行捏,至少投得进去 05/17 12:30
1201F:→ alljerry04: 人人有得刷 05/17 12:30
1202F:→ metro721: 刷 05/17 12:30
1203F:→ volleystyle: 鸟安 05/17 12:30
1204F:推 nightcrow: 又落地了 05/17 12:30
1205F:推 jerrysaikou: 继续刷 05/17 12:30
1206F:推 Getbackers: 连ESP都刷安 05/17 12:30
1207F:推 Muting46: 换野手可以尽情的刷 05/17 12:30
1208F:→ ray830330: 不紮实还是安 05/17 12:30
1209F:推 roylee1214: 打不完了 05/17 12:30
1210F:嘘 ludoren: 爱尔达广告吃球? 05/17 12:30
1211F:推 YHS5566: 不要再打了… 05/17 12:30
1212F:→ KLGlikeshit: 大家全部一起上场 05/17 12:30
1213F:推 e2167471: 他投了50球 後段真的不能怪他 不知道天使总仔在想啥 05/17 12:30
1214F:推 nepenthes7: 天使第二主场 05/17 12:30
1215F:推 pig33pig33: 不要再打了 05/17 12:30
1216F:→ cdsjquiz: 谁刷不到就尴尬了 05/17 12:30
1217F:→ alain: 本来以为今天是投手战,结果居然变成烧光了打不完,好峰回 05/17 12:30
1218F:推 mepass: 这样也安 05/17 12:30
1219F:推 freetomove: 这样也有 05/17 12:30
1220F:推 Axwell: 变速???? 05/17 12:30
1221F:推 baekbin: 随便安 05/17 12:30
1222F:→ di3xyo0z: 太残忍了,连鸟棒都刷到安 05/17 12:30
1223F:→ alain: 路转 05/17 12:30
1224F:推 ZIQQ001: 只有call当好人 05/17 12:30
1225F:推 pett: Manoah当初还能跟Cole呛 现在不胜唏嘘 05/17 12:30
1226F:推 kulas9527: 拉辛刷的到吗 05/17 12:30
1227F:推 zealotlai274: 双鲁阁要来了 05/17 12:30
1228F:推 bear09931831: 道奇先发慢慢下班惹XD 05/17 12:30
1229F:推 sh930302123: 这数字怎麽这麽眼熟(x 05/17 12:30
1230F:→ KLGlikeshit: 笑死哈哈 05/17 12:31
1231F:→ Axwell: 投真好 05/17 12:31
1232F:推 fash5896: DP 05/17 12:31
1233F:→ alljerry04: 好人 05/17 12:31
1234F:推 windphilip: DP 谢谢 05/17 12:31
1235F:推 norel147: DPPPPPP 05/17 12:31
1236F:推 SHOTN17: 好人 = = 05/17 12:31
1237F:→ reader2714: DP 好人 05/17 12:31
1238F:→ cdsjquiz: DP 笑死 05/17 12:31
1239F:→ Muting46: 好人 05/17 12:31
1240F:→ nepenthes7: 小金没刷到 05/17 12:31
1241F:→ crayon1988: 刷不到 好人 05/17 12:31
1242F:→ jiaxie: Rushing DP... 05/17 12:31
1243F:→ zego41: 两出局有很难抓吗? 05/17 12:31
1244F:→ nigatsuki: 也觉得後面不能怪他了 超过50球是当WS克林在操吗= = 05/17 12:31
1245F:→ roylee1214: XDDDD 05/17 12:31
1246F:推 sadmonkey: 好人下班 05/17 12:31
1247F:推 JWalk77: 好烂 05/17 12:31
1248F:推 inschool: 结果是拉辛好人 05/17 12:31
1249F:推 lafeelbarth: 好强 05/17 12:31
1250F:推 rurutei: 终於喔 05/17 12:31
1251F:推 angel1314: 好人 05/17 12:31
1252F:推 wind164: Frazier: 很难投? 05/17 12:31
1253F:→ bear09931831: 好人耶 05/17 12:31
1254F:推 a7788783: 好人 05/17 12:31
1255F:→ ZIQQ001: 好人 05/17 12:31
1256F:→ freeview: 拉辛是好孩子(? 05/17 12:31
1257F:→ jerrysaikou: 野手比较强 05/17 12:31
1258F:推 zxcghjko: DP 05/17 12:31
1259F:→ qazzaq3977: 好人 05/17 12:31
1260F:→ volleystyle: 好人 05/17 12:31
1261F:推 benboy: 好人 肉哈上吗 05/17 12:31
1262F:推 YaLuBigRock: 大好人 05/17 12:31
1263F:→ sky070650: 拉辛好人 05/17 12:31
1264F:推 ciled1: 好人 05/17 12:31
1265F:推 littlebug421: 好人下班 05/17 12:31
1266F:→ roylee1214: 太好笑了 05/17 12:31
1267F:→ stevejack: 好人 05/17 12:31
1268F:推 ae2622: 好人 终於结束了 05/17 12:31
1269F:→ pig33pig33: 好人 05/17 12:31
1270F:推 safyrose: 铃木是忘记自己是教头 脚麻了吗 05/17 12:31
1271F:推 sharkmew: 拉辛好人 05/17 12:31
1272F:→ zealotlai274: 野手乾净俐落 05/17 12:31
1273F:推 KSUGOD: 大谷继续刷分数 05/17 12:31
1274F:→ jiaxie: 应该是肉哈丝上场 05/17 12:31
1275F:推 sally09287: 野手比较强 05/17 12:31
1276F:推 grade1kimo: 年轻人真好 05/17 12:31
1277F:→ nigatsuki: 再添五分听起来好荒谬 05/17 12:31
1278F:→ crayon1988: 别闹了 早点打完早点下班(X 05/17 12:31
1279F:推 klbbt357: 双杀 就是这麽简单XD 05/17 12:31
1280F:推 kiki2125: 好孩子 05/17 12:31
1281F:→ pett: 拉辛人很好 05/17 12:31
1282F:→ baekbin: 善良的孩子 05/17 12:31
1283F:→ angel1314: 等等肉哈? 05/17 12:31
1284F:推 alilay: 结果野手暴强 05/17 12:31
1285F:→ volleystyle: 大谷今天跑满整场 05/17 12:31
1286F:推 webber04: 笑死 05/17 12:31
1287F:推 ichiro51arod: 野手真强 05/17 12:31
1288F:推 tns97525: 形象变成好孩子了 05/17 12:31
1289F:推 RoaringWolf: 想下班,对大家都好 05/17 12:32
1290F:推 Ricky0421: 超好笑 一脸想下班的挥棒 05/17 12:32
1291F:推 peter89000: 拉辛赶下班 05/17 12:32
1292F:→ roylee1214: 拉辛的球棒表示:危 05/17 12:32
1293F:→ volleystyle: 拉辛之前太呛 今天当好人 05/17 12:32
1294F:→ webber04: 多好的一个孩子 懂得读空气 05/17 12:32
1295F:推 po5454: 拉辛:想下班了 05/17 12:32
1296F:推 pirates223: 笑死今天跑好跑满 05/17 12:32
1297F:推 preattyall: 大谷fwar大进补 05/17 12:32
1298F:→ JWalk77: Manoah先发底的 而且五天没投了 05/17 12:32
1299F:→ FunnyPotato: 如果完全不挥,应该轻松保送 05/17 12:32
1300F:→ kiki2125: 应该会派软投吧 05/17 12:33
1301F:→ FunnyPotato: 没有肉哈 05/17 12:33
1302F:推 jiaxie: Barnes 上 05/17 12:33
1303F:推 leo79415: 这投手又是哪来的 05/17 12:33
1304F:推 di3xyo0z: 强投沦落至此 真的满可怜的 05/17 12:33
1305F:→ volleystyle: 肉哈要投吗 05/17 12:33
1306F:→ jiaxie: 一球穿 05/17 12:33
1307F:推 SHOTN17: 另一位免洗 05/17 12:33
1308F:推 reader2714: 欸不是肉哈喔 05/17 12:33
1309F:→ FunnyPotato: 这投手就昨天最後一个啊 05/17 12:33
1310F:→ volleystyle: 蛤 05/17 12:33
1311F:推 angel1314: 居然不是肉哈 05/17 12:33
1312F:推 Getbackers: 一球安 05/17 12:33
1313F:→ crayon1988: 小熊DFA 上星期被道奇捡回来的 05/17 12:33
1314F:→ FunnyPotato: 从小熊那捡来的吧 05/17 12:33
1315F:推 nigatsuki: 天天B 05/17 12:34
1316F:推 ae2622: 没有要派野手阿 05/17 12:34
1317F:推 luca714: 还以为昨天牛棚日这局会用野手偷一局 05/17 12:34
1318F:→ volleystyle: 为啥不给肉哈投 05/17 12:34
1319F:推 sharkmew: 另一位免洗牛 05/17 12:34
1320F:推 metro721: 欸欸 大家配合一下 05/17 12:34
1321F:推 chienen: 捡来的免洗牛 05/17 12:34
1322F:推 roylee1214: 肉哈呢 05/17 12:34
1323F:→ kiki2125: 道奇对教士 最好把最後两任投手换掉 05/17 12:34
1324F:推 alain: 原来是趁机开箱 05/17 12:34
1325F:→ SHOTN17: Manoah今天投完 明天可能又下去QQ 05/17 12:34
1326F:→ crayon1988: 昨天他也有投 05/17 12:34
1327F:→ FunnyPotato: 道奇call了一个免洗牛随队,下一场可能会换人 05/17 12:34
1328F:推 sadmonkey: 免洗把握机会也是能当克林 05/17 12:34
1329F:→ roylee1214: 还是休息日乾脆休到底 05/17 12:34
1330F:→ asd45654: 就练兵看看能不能用吧 05/17 12:34
1331F:→ jiaxie: 中飞 1OUT 05/17 12:34
1332F:→ crayon1988: M2 05/17 12:34
1333F:→ kiki2125: 这用法就是DFA 05/17 12:34
1334F:→ asd45654: 早上看好像有拉一个金莺的 05/17 12:35
1335F:→ kiki2125: 强投 手肘重伤也没办法 05/17 12:35
1336F:→ crayon1988: M1 05/17 12:35
1337F:→ FunnyPotato: 一个叫Chayce McDermott的 05/17 12:35
1338F:推 alljerry04: 老了 05/17 12:35
1339F:→ jiaxie: 大哥中飞 2OUT,可惜 05/17 12:35
1340F:推 shinchen: 免洗投手用法前两年都看习惯了 05/17 12:35
1341F:推 cdsjquiz: 又接到 05/17 12:35
1342F:推 ils0104: 有帕黑真好 05/17 12:36
1343F:推 freeview: 吸球机喔 05/17 12:36
1344F:推 nigatsuki: 怕黑的防守价值真的超高 05/17 12:36
1345F:→ kiki2125: 大狗秀 05/17 12:36
1346F:推 Amberla: 今天生意很好 05/17 12:36
1347F:推 Getbackers: 以为神鳟炸裂 05/17 12:36
1348F:推 hi750403: 好惨忍 05/17 12:36
1349F:推 volleystyle: 怕黑去年灌篮完後整个超稳 05/17 12:36
1350F:→ kiki2125: 免洗牛也不是没机会 克莱就是捉住机会 05/17 12:36
1351F:→ roylee1214: 这投手似乎也没球速 05/17 12:37
1352F:→ hi750403: 快下班 05/17 12:37
1353F:推 realblank: 免洗牛也是有翻身可能的 掌握每次上场机会好好表现 05/17 12:37
1354F:→ kiki2125: 记得从水手队捡来 季赛不太行 世界大赛大爆发 05/17 12:37
1355F:推 webber04: 全MLB最火的球队 多少球探在看 表现好随时可能被捡走 05/17 12:37
1356F:→ hi750403: 今天帕黑各种亮眼 05/17 12:37
1357F:→ FunnyPotato: 他均速不到90mph 05/17 12:37
1358F:→ hi750403: 下课 05/17 12:37
1359F:推 luca714: 赶下班 05/17 12:37
1360F:推 Ferrari360: 笑死 05/17 12:37
1361F:推 u9596g12: KKK 05/17 12:37
1362F:推 a7788783: 蛤? 05/17 12:37
1363F:推 Axy8: 超好笑 05/17 12:38
1364F:推 cdsjquiz: 居然 05/17 12:38
1365F:推 inschool: 笑死 不想玩了 05/17 12:38
1366F:推 SHOTN17: XDDD 乾 主审想下班 05/17 12:38
1367F:推 jimmily: 别浪费时间了,赶快下班 05/17 12:38
1368F:推 loveisth520: 笑死 05/17 12:38
1369F:推 ray830330: 主审要下班 05/17 12:38
1370F:→ crayon1988: 超海 欺负你没挑战了 05/17 12:38
1371F:→ Getbackers: 明天不会是山本先发吧?今天大家先把分数打一打 05/17 12:38
1372F:推 zxcghjko: 超海 没挑战了 笑死 05/17 12:38
1373F:推 nigatsuki: 太想下班了吧大哥 05/17 12:38
1374F:→ roylee1214: 主审?海边 05/17 12:38
1375F:推 xin114242: 帮你下班 05/17 12:38
1376F:推 benboy: 在见kkkkk 05/17 12:38
1377F:推 jiaxie: LAD WIN! WROBLESKI QS WIN! OHTANI 2BB 3B 2B WIN! 05/17 12:38
1378F:推 mepass: 直接下班 05/17 12:38
1379F:推 jerrysaikou: 早点下班 05/17 12:38
1380F:推 myeunji: 主审海 05/17 12:38
1381F:推 angel1314: 主审赶下班XD 05/17 12:38
1382F:→ volleystyle: ??? 05/17 12:38
1383F:→ kiki2125: 裁判赶下班.... 05/17 12:38
1384F:推 hexokinase: 没挑战了是吧 嘿嘿 05/17 12:38
1385F:推 Beakidd: 想下班超明显,哈哈哈哈哈哈 05/17 12:38
1386F:→ hi750403: 明天再加油 05/17 12:38
1387F:→ u9596g12: 天使没得挑战罗 自己吞下去 05/17 12:38
1388F:推 norel147: 主审想下班XDDDDDDDD 05/17 12:38
1389F:推 littlebug421: 裁判:赶下班 05/17 12:38
1390F:推 ZIQQ001: 主审赶下班 05/17 12:38
1391F:推 tieneun: 不想浪费时间了XD 05/17 12:38
1392F:→ reader2714: 这太过份了吧www 05/17 12:38
1393F:推 e2167471: ???? 05/17 12:38
1394F:推 chiz2: 赶下班 05/17 12:38
1395F:推 ae2622: 超海 主审想下班了 05/17 12:38
1396F:→ Axy8: 主审也受够了 05/17 12:38
1397F:推 kfcopass: 笑死赶下班赶成这样 05/17 12:38
1398F:推 metro721: 蛤 结束 其实今天靠保送就赢了 05/17 12:38
1399F:推 JustWinslow: 主审赶下班 05/17 12:38
1400F:推 Shimo704: 真的是赶下班 05/17 12:38
1401F:→ nigatsuki: 这起码一颗半耶 05/17 12:38
1402F:推 ScotchWhisky: 主审:我想下班了 有意见吗 05/17 12:38
1403F:→ crayon1988: 好了好了 差13分还要挣扎什麽 05/17 12:38
1404F:→ webber04: 看你没挑战 笑死 05/17 12:38
1405F:→ roylee1214: 欺负人没挑战 XDD 05/17 12:38
1406F:→ kiki2125: 大家都OK啦 快点收一收 05/17 12:38
1407F:推 freetomove: 主审这真的是赶下班 05/17 12:38
1408F:→ jiaxie: 主审超明显赶下班 05/17 12:38
1409F:→ volleystyle: 裁判累了 05/17 12:38
1410F:推 po5454: 主审你想下班的太明显了 05/17 12:38
1411F:→ realblank: 裁判表示 我累了 让大家快下班 05/17 12:38
1412F:推 wang7752: 赶下班 XD 05/17 12:38
1413F:→ mepass: 主审想回去棒赛了 05/17 12:38
1414F:→ u9596g12: 主审 : 大家可以回家收衣服啦 别闹了 05/17 12:38
1415F:→ hi750403: 喔也终於分数up 05/17 12:38
1416F:推 leo79415: 主审:没挑战? 那我要下班了嘿嘿 05/17 12:38
1417F:推 ushiwakamaru: 蛤XD 05/17 12:38
1418F:→ littlebug421: 欺负天使没挑战了 赶下班XDDD 05/17 12:38
1419F:推 Moselle: 道奇可以帮挑战啊XD 05/17 12:38
1420F:→ jiaxie: 主审:都这比分了,早点洗洗睡,明天一早还要比赛啊 05/17 12:39
1421F:→ hi750403: xd 05/17 12:39
1422F:→ luca714: 虫太多了 主审站在那边整场 有想过他的感受吗 05/17 12:39
1423F:→ roylee1214: 不知道这个如果帮挑战会不会成为记录 哈哈 05/17 12:39
1424F:→ u9596g12: 好奇照规则 如果是道奇可以申请拍帽子吗 05/17 12:39
1425F:推 preattyall: 难得还没有大谷文 05/17 12:39
1426F:推 g204094: 晚点15小时还要比赛 主审表示不要闹了 05/17 12:39
1427F:→ Getbackers: 欺负人家没屌挑战 05/17 12:39
1428F:→ cdsjquiz: 这海了多少颗 笑死 05/17 12:39
1429F:→ roylee1214: 理论上有挑战应该都会看 05/17 12:39
1430F:→ crayon1988: 别队有拍错的就是了 05/17 12:39
1431F:→ hi750403: 可以 05/17 12:40
1432F:推 nigatsuki: 主审:请先驱虫 05/17 12:40
1433F:→ webber04: 小叶:坏球也可以骗挑战 05/17 12:40
1434F:→ crayon1988: 还有主审late call 打者捕手都抠挑战的 05/17 12:40
1435F:→ freeview: 就算影帝拍帽子主审铁定也是装死没看到走下场啦 05/17 12:40
1436F:→ roylee1214: 大谷访问中还在打虫 XDD 05/17 12:41
1437F:推 leo79415: 笑死 大谷访问还在赶虫子 05/17 12:41
1438F:→ hi750403: sori前面也投很好就一局炸 05/17 12:41
1439F:推 jiaxie: 明天5/17是LA SHOHEI OHTANI DAY 05/17 12:41
1440F:推 pett: 大谷刷五分打点 好补 05/17 12:41
1441F:→ roylee1214: 五打点 05/17 12:41
1442F:推 kiki2125: 奶头也没讲什麽 就直接回去 05/17 12:41
1443F:→ kiki2125: 这场是虫子的胜利 05/17 12:41
1444F:推 sun0183: 挑战用完了吧 05/17 12:42
1445F:推 g204094: 访问也太黑了 05/17 12:42
1446F:→ roylee1214: 是不是还有节目 05/17 12:42
1447F:→ kiki2125: sori在挥虫时就知道不妙,投手的情绪,跟投球的肌肉是 05/17 12:42
1448F:→ kiki2125: 很精密 05/17 12:43
1449F:推 sun0183: 明天是佐佐木阿 上次跳过一次先发 不知道会不会有 05/17 12:44
1450F:→ sun0183: 影响 05/17 12:44
1451F:推 leocheng: 那朗希只能靠自己了 没有分数了 05/17 12:46
1452F:推 nigatsuki: 如果明天虫害还是那麽严重 那他真的不妙 05/17 12:48
1453F:推 ScotchWhisky: 明天是中午的比赛 应该没虫子干扰吧 05/17 12:49
1454F:推 biosphere: 朗希明天靠自己吧 05/17 13:09
1455F:→ jack86326: 纬来 张阳 郑又嘉 https://youtu.be/GiAigPvrZKo 05/17 13:32
1456F:→ jack86326: 爱尔达 林炜珽 潘忠韦 https://youtu.be/iMmZzdLJ_SU 05/17 13:33







like.gif 您可能会有兴趣的文章
icon.png[问题/行为] 猫晚上进房间会不会有憋尿问题
icon.pngRe: [闲聊] 选了错误的女孩成为魔法少女 XDDDDDDDDDD
icon.png[正妹] 瑞典 一张
icon.png[心得] EMS高领长版毛衣.墨小楼MC1002
icon.png[分享] 丹龙隔热纸GE55+33+22
icon.png[问题] 清洗洗衣机
icon.png[寻物] 窗台下的空间
icon.png[闲聊] 双极の女神1 木魔爵
icon.png[售车] 新竹 1997 march 1297cc 白色 四门
icon.png[讨论] 能从照片感受到摄影者心情吗
icon.png[狂贺] 贺贺贺贺 贺!岛村卯月!总选举NO.1
icon.png[难过] 羡慕白皮肤的女生
icon.png阅读文章
icon.png[黑特]
icon.png[问题] SBK S1安装於安全帽位置
icon.png[分享] 旧woo100绝版开箱!!
icon.pngRe: [无言] 关於小包卫生纸
icon.png[开箱] E5-2683V3 RX480Strix 快睿C1 简单测试
icon.png[心得] 苍の海贼龙 地狱 执行者16PT
icon.png[售车] 1999年Virage iO 1.8EXi
icon.png[心得] 挑战33 LV10 狮子座pt solo
icon.png[闲聊] 手把手教你不被桶之新手主购教学
icon.png[分享] Civic Type R 量产版官方照无预警流出
icon.png[售车] Golf 4 2.0 银色 自排
icon.png[出售] Graco提篮汽座(有底座)2000元诚可议
icon.png[问题] 请问补牙材质掉了还能再补吗?(台中半年内
icon.png[问题] 44th 单曲 生写竟然都给重复的啊啊!
icon.png[心得] 华南红卡/icash 核卡
icon.png[问题] 拔牙矫正这样正常吗
icon.png[赠送] 老莫高业 初业 102年版
icon.png[情报] 三大行动支付 本季掀战火
icon.png[宝宝] 博客来Amos水蜡笔5/1特价五折
icon.pngRe: [心得] 新鲜人一些面试分享
icon.png[心得] 苍の海贼龙 地狱 麒麟25PT
icon.pngRe: [闲聊] (君の名は。雷慎入) 君名二创漫画翻译
icon.pngRe: [闲聊] OGN中场影片:失踪人口局 (英文字幕)
icon.png[问题] 台湾大哥大4G讯号差
icon.png[出售] [全国]全新千寻侘草LED灯, 水草

请输入看板名称,例如:Soft_Job站内搜寻

TOP